Time,TemperatureF,DewpointF,PressureIn,WindDirection,WindDirectionDegrees,WindSpeedMPH,WindSpeedGustMPH,Humidity,HourlyPrecipIn,Conditions,Clouds,dailyrainin,SoftwareType,DateUTC
2013-01-10 00:01:00,35.5,18.7,29.91,SSW,207,17.3,17.3,50,0.00,,,0.00,WeatherDisplay:10.37,2013-01-10 06:01:00,
2013-01-10 00:02:00,35.5,18.7,29.91,SSW,203,21.0,21.0,50,0.00,,,0.00,WeatherDisplay:10.37,2013-01-10 06:02:00,
2013-01-10 00:06:00,35.4,18.6,29.91,SSW,203,19.6,19.6,50,0.00,,,0.00,WeatherDisplay:10.37,2013-01-10 06:06:00,
2013-01-10 00:07:00,35.4,18.6,29.91,SSW,202,19.6,19.6,50,0.00,,,0.00,WeatherDisplay:10.37,2013-01-10 06:07:00,
2013-01-10 00:10:00,35.4,18.6,29.91,SSW,205,14.0,0.0,50,0.00,,,0.00,WeatherDisplay:10.37,2013-01-10 06:10:00,
2013-01-10 00:12:00,35.4,18.6,29.91,SSW,202,17.3,17.3,50,0.00,,,0.00,WeatherDisplay:10.37,2013-01-10 06:12:00,
2013-01-10 00:13:00,35.5,18.7,29.91,SSW,205,19.6,19.6,50,0.00,,,0.00,WeatherDisplay:10.37,2013-01-10 06:13:00,
2013-01-10 00:18:00,35.6,18.8,29.91,SSW,203,17.3,17.3,50,0.00,,,0.00,WeatherDisplay:10.37,2013-01-10 06:18:00,
2013-01-10 00:19:00,35.6,18.8,29.91,SSW,197,18.0,18.0,50,0.00,,,0.00,WeatherDisplay:10.37,2013-01-10 06:19:00,
2013-01-10 00:20:00,35.6,18.8,29.91,SSW,209,19.6,19.6,50,0.00,,,0.00,WeatherDisplay:10.37,2013-01-10 06:20:00,
2013-01-10 00:24:00,35.7,18.9,29.91,SSW,202,21.0,21.0,50,0.00,,,0.00,WeatherDisplay:10.37,2013-01-10 06:24:00,
2013-01-10 00:25:00,35.6,18.8,29.91,SSW,198,20.7,20.7,50,0.00,,,0.00,WeatherDisplay:10.37,2013-01-10 06:25:00,
2013-01-10 00:29:00,35.7,18.9,29.91,SSW,199,17.3,17.3,50,0.00,,,0.00,WeatherDisplay:10.37,2013-01-10 06:29:00,
2013-01-10 00:30:00,35.6,18.8,29.91,SSW,195,14.0,14.0,50,0.00,,,0.00,WeatherDisplay:10.37,2013-01-10 06:30:00,
2013-01-10 00:34:00,35.3,18.5,29.91,SSW,196,12.7,12.7,50,0.00,,,0.00,WeatherDisplay:10.37,2013-01-10 06:34:00,
2013-01-10 00:35:00,35.2,18.4,29.91,SSW,197,15.0,15.0,50,0.00,,,0.00,WeatherDisplay:10.37,2013-01-10 06:35:00,
2013-01-10 00:36:00,35.2,18.4,29.91,SSW,199,15.0,15.0,50,0.00,,,0.00,WeatherDisplay:10.37,2013-01-10 06:36:00,
2013-01-10 00:40:00,35.1,18.3,29.91,South,184,13.8,13.8,50,0.00,,,0.00,WeatherDisplay:10.37,2013-01-10 06:40:00,
2013-01-10 00:41:00,35.0,18.2,29.91,SSW,195,16.0,16.0,50,0.00,,,0.00,WeatherDisplay:10.37,2013-01-10 06:41:00,
2013-01-10 00:42:00,34.9,18.1,29.91,South,189,16.1,16.1,50,0.00,,,0.00,WeatherDisplay:10.37,2013-01-10 06:42:00,
2013-01-10 00:45:00,34.7,17.9,29.91,South,186,14.0,14.0,50,0.00,,,0.00,WeatherDisplay:10.37,2013-01-10 06:45:00,
2013-01-10 00:47:00,34.6,17.8,29.91,South,185,13.8,13.8,50,0.00,,,0.00,WeatherDisplay:10.37,2013-01-10 06:47:00,
2013-01-10 00:50:00,34.2,17.5,29.91,South,186,9.0,0.0,50,0.00,,,0.00,WeatherDisplay:10.37,2013-01-10 06:50:00,
2013-01-10 00:51:00,34.2,17.5,29.91,South,183,11.5,11.5,50,0.00,,,0.00,WeatherDisplay:10.37,2013-01-10 06:51:00,
2013-01-10 00:52:00,34.2,17.5,29.91,South,179,11.5,11.5,50,0.00,,,0.00,WeatherDisplay:10.37,2013-01-10 06:52:00,
2013-01-10 00:55:00,34.2,17.5,29.91,South,187,11.5,11.5,50,0.00,,,0.00,WeatherDisplay:10.37,2013-01-10 06:55:00,
2013-01-10 00:57:00,34.3,17.6,29.91,South,184,12.0,12.0,50,0.00,,,0.00,WeatherDisplay:10.37,2013-01-10 06:57:00,
2013-01-10 00:58:00,34.3,17.6,29.91,SSW,192,12.7,12.7,50,0.00,,,0.00,WeatherDisplay:10.37,2013-01-10 06:58:00,
2013-01-10 00:59:00,34.4,17.7,29.91,South,190,16.0,16.0,50,0.00,,,0.00,WeatherDisplay:10.37,2013-01-10 06:59:00,
2013-01-10 01:01:00,28.2,11.9,29.91,SSE,156,1.0,5.0,50,0.00,CLR,CLR,0.00,WeatherDisplay:10.37,2013-01-10 07:01:00,
2013-01-10 01:02:00,34.7,17.9,29.91,South,188,16.1,16.1,50,0.00,,,0.00,WeatherDisplay:10.37,2013-01-10 07:02:00,
2013-01-10 01:03:00,34.7,17.9,29.91,South,184,15.0,15.0,50,0.00,,,0.00,WeatherDisplay:10.37,2013-01-10 07:03:00,
2013-01-10 01:04:00,34.7,17.9,29.91,South,182,15.0,15.0,50,0.00,,,0.00,WeatherDisplay:10.37,2013-01-10 07:04:00,
2013-01-10 01:05:00,34.7,17.9,29.91,South,189,13.8,13.8,50,0.00,,,0.00,WeatherDisplay:10.37,2013-01-10 07:05:00,
2013-01-10 01:06:00,28.2,11.9,29.91,SSE,156,1.0,0.0,50,0.00,CLR,CLR,0.00,WeatherDisplay:10.37,2013-01-10 07:06:00,
2013-01-10 01:07:00,28.2,11.9,29.91,SSE,156,1.0,0.0,50,0.00,CLR,CLR,0.00,WeatherDisplay:10.37,2013-01-10 07:07:00,
2013-01-10 01:08:00,28.2,11.9,29.91,SSE,156,1.0,0.0,50,0.00,CLR,CLR,0.00,WeatherDisplay:10.37,2013-01-10 07:08:00,
2013-01-10 01:09:00,34.7,17.9,29.91,South,185,16.1,16.1,50,0.00,,,0.00,WeatherDisplay:10.37,2013-01-10 07:09:00,
2013-01-10 01:10:00,34.7,17.9,29.91,South,184,16.1,16.1,50,0.00,,,0.00,WeatherDisplay:10.37,2013-01-10 07:10:00,
2013-01-10 01:14:00,34.9,18.1,29.91,South,187,15.0,15.0,50,0.00,,,0.00,WeatherDisplay:10.37,2013-01-10 07:14:00,
2013-01-10 01:16:00,34.9,18.1,29.91,South,184,14.0,14.0,50,0.00,,,0.00,WeatherDisplay:10.37,2013-01-10 07:16:00,
2013-01-10 01:17:00,35.1,18.3,29.91,South,187,18.0,18.0,50,0.00,,,0.00,WeatherDisplay:10.37,2013-01-10 07:17:00,
2013-01-10 01:20:00,35.1,18.3,29.91,South,181,15.0,15.0,50,0.00,,,0.00,WeatherDisplay:10.37,2013-01-10 07:20:00,
2013-01-10 01:21:00,35.2,18.4,29.91,South,183,16.0,16.0,50,0.00,,,0.00,WeatherDisplay:10.37,2013-01-10 07:21:00,
2013-01-10 01:23:00,35.1,18.3,29.91,South,181,16.1,16.1,50,0.00,,,0.00,WeatherDisplay:10.37,2013-01-10 07:23:00,
2013-01-10 01:25:00,35.1,18.3,29.91,South,185,15.0,15.0,50,0.00,,,0.00,WeatherDisplay:10.37,2013-01-10 07:25:00,
2013-01-10 01:27:00,35.0,18.2,29.91,South,182,13.0,13.0,50,0.00,,,0.00,WeatherDisplay:10.37,2013-01-10 07:27:00,
2013-01-10 01:28:00,35.0,18.2,29.91,South,179,15.0,15.0,50,0.00,,,0.00,WeatherDisplay:10.37,2013-01-10 07:28:00,
2013-01-10 01:29:00,35.0,18.2,29.91,South,180,14.0,14.0,50,0.00,,,0.00,WeatherDisplay:10.37,2013-01-10 07:29:00,
2013-01-10 01:30:00,35.0,18.2,29.91,South,181,12.0,0.0,50,0.00,,,0.00,WeatherDisplay:10.37,2013-01-10 07:30:00,
2013-01-10 01:33:00,34.9,18.1,29.91,South,187,11.5,11.5,50,0.00,,,0.00,WeatherDisplay:10.37,2013-01-10 07:33:00,
2013-01-10 01:35:00,34.8,18.0,29.91,SSW,192,12.7,12.7,50,0.00,,,0.00,WeatherDisplay:10.37,2013-01-10 07:35:00,
2013-01-10 01:36:00,34.7,17.9,29.91,South,185,12.7,12.7,50,0.00,,,0.00,WeatherDisplay:10.37,2013-01-10 07:36:00,
2013-01-10 01:39:00,34.7,17.9,29.91,South,187,15.0,15.0,50,0.00,,,0.00,WeatherDisplay:10.37,2013-01-10 07:39:00,
2013-01-10 01:40:00,34.6,17.9,29.91,South,186,10.0,0.0,50,0.00,,,0.00,WeatherDisplay:10.37,2013-01-10 07:40:00,
2013-01-10 01:41:00,34.6,17.8,29.91,South,186,11.5,11.5,50,0.00,,,0.00,WeatherDisplay:10.37,2013-01-10 07:41:00,
2013-01-10 01:42:00,34.5,17.8,29.91,South,184,12.0,12.0,50,0.00,,,0.00,WeatherDisplay:10.37,2013-01-10 07:42:00,
2013-01-10 01:44:00,34.3,17.6,29.91,South,182,13.0,13.0,50,0.00,,,0.00,WeatherDisplay:10.37,2013-01-10 07:44:00,
2013-01-10 01:45:00,34.3,17.6,29.91,South,184,12.7,12.7,50,0.00,,,0.00,WeatherDisplay:10.37,2013-01-10 07:45:00,
2013-01-10 01:46:00,34.2,17.5,29.91,South,185,12.0,12.0,50,0.00,,,0.00,WeatherDisplay:10.37,2013-01-10 07:46:00,
2013-01-10 01:50:00,34.3,17.6,29.91,South,186,12.0,12.0,50,0.00,,,0.00,WeatherDisplay:10.37,2013-01-10 07:50:00,
2013-01-10 01:51:00,34.3,17.6,29.91,South,185,13.0,13.0,50,0.00,,,0.00,WeatherDisplay:10.37,2013-01-10 07:51:00,
2013-01-10 01:53:00,34.2,17.5,29.91,South,184,12.7,12.7,50,0.00,,,0.00,WeatherDisplay:10.37,2013-01-10 07:53:00,
2013-01-10 01:55:00,34.2,17.5,29.91,South,184,14.0,14.0,50,0.00,,,0.00,WeatherDisplay:10.37,2013-01-10 07:55:00,
2013-01-10 01:56:00,34.2,17.5,29.91,South,181,13.8,13.8,50,0.00,,,0.00,WeatherDisplay:10.37,2013-01-10 07:56:00,
2013-01-10 02:00:00,34.1,17.4,29.91,South,184,11.5,11.5,50,0.00,,,0.00,WeatherDisplay:10.37,2013-01-10 08:00:00,
2013-01-10 02:01:00,34.1,17.4,29.91,South,182,13.0,13.0,50,0.00,,,0.00,WeatherDisplay:10.37,2013-01-10 08:01:00,
2013-01-10 02:04:00,34.0,17.3,29.91,South,181,13.0,13.0,50,0.00,,,0.00,WeatherDisplay:10.37,2013-01-10 08:04:00,
2013-01-10 02:05:00,34.1,17.4,29.91,South,180,12.7,12.7,50,0.00,,,0.00,WeatherDisplay:10.37,2013-01-10 08:05:00,
2013-01-10 02:08:00,34.1,17.4,29.91,South,180,12.7,12.7,50,0.00,,,0.00,WeatherDisplay:10.37,2013-01-10 08:08:00,
2013-01-10 02:10:00,34.1,17.4,29.91,South,181,15.0,15.0,50,0.00,,,0.00,WeatherDisplay:10.37,2013-01-10 08:10:00,
2013-01-10 02:11:00,34.1,17.4,29.91,South,180,15.0,15.0,50,0.00,,,0.00,WeatherDisplay:10.37,2013-01-10 08:11:00,
2013-01-10 02:13:00,34.0,17.3,29.91,South,175,12.0,12.0,50,0.00,,,0.00,WeatherDisplay:10.37,2013-01-10 08:13:00,
2013-01-10 02:16:00,34.0,17.3,29.91,South,177,12.7,12.7,50,0.00,,,0.00,WeatherDisplay:10.37,2013-01-10 08:16:00,
2013-01-10 02:17:00,34.1,17.4,29.91,South,178,12.7,12.7,50,0.00,,,0.00,WeatherDisplay:10.37,2013-01-10 08:17:00,
2013-01-10 02:18:00,34.1,17.4,29.91,South,178,11.5,11.5,50,0.00,,,0.00,WeatherDisplay:10.37,2013-01-10 08:18:00,
2013-01-10 02:19:00,34.0,17.3,29.91,South,175,11.5,11.5,50,0.00,,,0.00,WeatherDisplay:10.37,2013-01-10 08:19:00,
2013-01-10 02:22:00,34.0,17.3,29.91,South,172,12.0,12.0,50,0.00,,,0.00,WeatherDisplay:10.37,2013-01-10 08:22:00,
2013-01-10 02:24:00,34.1,17.4,29.91,South,175,12.0,12.0,50,0.00,,,0.00,WeatherDisplay:10.37,2013-01-10 08:24:00,
2013-01-10 02:25:00,34.1,17.4,29.91,South,175,11.5,11.5,50,0.00,,,0.00,WeatherDisplay:10.37,2013-01-10 08:25:00,
2013-01-10 02:27:00,34.1,17.4,29.91,South,178,12.7,12.7,50,0.00,,,0.00,WeatherDisplay:10.37,2013-01-10 08:27:00,
2013-01-10 02:30:00,34.1,17.4,29.91,South,181,11.5,11.5,50,0.00,,,0.00,WeatherDisplay:10.37,2013-01-10 08:30:00,
2013-01-10 02:33:00,34.1,17.4,29.91,South,178,11.5,11.5,50,0.00,,,0.00,WeatherDisplay:10.37,2013-01-10 08:33:00,
2013-01-10 02:34:00,34.1,17.4,29.91,South,174,11.5,11.5,50,0.00,,,0.00,WeatherDisplay:10.37,2013-01-10 08:34:00,
2013-01-10 02:35:00,34.1,17.4,29.91,South,178,11.5,11.5,50,0.00,,,0.00,WeatherDisplay:10.37,2013-01-10 08:35:00,
2013-01-10 02:36:00,34.0,17.3,29.91,South,179,11.5,11.5,50,0.00,,,0.00,WeatherDisplay:10.37,2013-01-10 08:36:00,
2013-01-10 02:39:00,33.6,16.9,29.91,South,181,10.4,10.4,50,0.00,,,0.00,WeatherDisplay:10.37,2013-01-10 08:39:00,
2013-01-10 02:40:00,33.7,17.0,29.91,South,178,10.0,10.0,50,0.00,,,0.00,WeatherDisplay:10.37,2013-01-10 08:40:00,
2013-01-10 02:42:00,33.8,17.1,29.91,South,180,10.4,10.4,50,0.00,,,0.00,WeatherDisplay:10.37,2013-01-10 08:42:00,
2013-01-10 02:45:00,33.6,16.9,29.91,South,170,8.1,8.1,50,0.00,,,0.00,WeatherDisplay:10.37,2013-01-10 08:45:00,
2013-01-10 02:46:00,33.5,16.8,29.91,SSE,167,8.1,8.1,50,0.00,,,0.00,WeatherDisplay:10.37,2013-01-10 08:46:00,
2013-01-10 02:47:00,33.5,16.8,29.91,SSE,165,8.1,8.1,50,0.00,,,0.00,WeatherDisplay:10.37,2013-01-10 08:47:00,
2013-01-10 02:50:00,33.4,16.7,29.91,SSE,166,9.0,9.0,50,0.00,,,0.00,WeatherDisplay:10.37,2013-01-10 08:50:00,
2013-01-10 02:51:00,33.4,16.7,29.91,SSE,164,9.2,9.2,50,0.00,,,0.00,WeatherDisplay:10.37,2013-01-10 08:51:00,
2013-01-10 02:55:00,33.2,16.5,29.91,SSE,166,10.4,10.4,50,0.00,,,0.00,WeatherDisplay:10.37,2013-01-10 08:55:00,
2013-01-10 02:57:00,33.1,16.5,29.91,SSE,168,10.4,10.4,50,0.00,,,0.00,WeatherDisplay:10.37,2013-01-10 08:57:00,
2013-01-10 03:00:00,33.2,16.5,29.91,SSE,167,12.7,12.7,50,0.00,,,0.00,WeatherDisplay:10.37,2013-01-10 09:00:00,
2013-01-10 03:01:00,33.2,16.5,29.91,SSE,165,12.7,12.7,50,0.00,,,0.00,WeatherDisplay:10.37,2013-01-10 09:01:00,
2013-01-10 03:03:00,33.1,16.5,29.91,SSE,166,11.5,11.5,50,0.00,,,0.00,WeatherDisplay:10.37,2013-01-10 09:03:00,
2013-01-10 03:04:00,33.1,16.5,29.91,SSE,167,11.5,11.5,50,0.00,,,0.00,WeatherDisplay:10.37,2013-01-10 09:04:00,
2013-01-10 03:09:00,32.7,16.1,29.91,SSE,162,11.5,11.5,50,0.00,,,0.00,WeatherDisplay:10.37,2013-01-10 09:09:00,
2013-01-10 03:10:00,32.7,16.1,29.91,SSE,167,10.4,10.4,50,0.00,,,0.00,WeatherDisplay:10.37,2013-01-10 09:10:00,
2013-01-10 03:12:00,32.5,15.9,29.91,SSE,162,10.4,10.4,50,0.00,,,0.00,WeatherDisplay:10.37,2013-01-10 09:12:00,
2013-01-10 03:14:00,32.4,15.8,29.91,SSE,163,11.5,11.5,50,0.00,,,0.00,WeatherDisplay:10.37,2013-01-10 09:14:00,
2013-01-10 03:18:00,32.0,15.4,29.91,SSE,163,10.0,10.0,50,0.00,,,0.00,WeatherDisplay:10.37,2013-01-10 09:18:00,
2013-01-10 03:19:00,32.0,15.4,29.91,SSE,163,10.4,10.4,50,0.00,,,0.00,WeatherDisplay:10.37,2013-01-10 09:19:00,
2013-01-10 03:20:00,32.0,15.4,29.91,SSE,163,8.0,0.0,50,0.00,,,0.00,WeatherDisplay:10.37,2013-01-10 09:20:00,
2013-01-10 03:22:00,31.8,15.3,29.91,SSE,166,9.2,9.2,50,0.00,,,0.00,WeatherDisplay:10.37,2013-01-10 09:22:00,
2013-01-10 03:24:00,31.9,15.3,29.91,SSE,166,10.4,10.4,50,0.00,,,0.00,WeatherDisplay:10.37,2013-01-10 09:24:00,
2013-01-10 03:26:00,31.9,15.3,29.91,SSE,165,10.4,10.4,50,0.00,,,0.00,WeatherDisplay:10.37,2013-01-10 09:26:00,
2013-01-10 03:28:00,31.8,15.3,29.91,SSE,166,10.4,10.4,50,0.00,,,0.00,WeatherDisplay:10.37,2013-01-10 09:28:00,
2013-01-10 03:29:00,31.8,15.3,29.91,SSE,167,10.4,10.4,50,0.00,,,0.00,WeatherDisplay:10.37,2013-01-10 09:29:00,
2013-01-10 03:30:00,31.8,15.3,29.91,SSE,167,9.2,9.2,50,0.00,,,0.00,WeatherDisplay:10.37,2013-01-10 09:30:00,
2013-01-10 03:31:00,31.7,15.2,29.91,SSE,167,10.0,10.0,50,0.00,,,0.00,WeatherDisplay:10.37,2013-01-10 09:31:00,
2013-01-10 03:33:00,31.5,15.0,29.91,SSE,167,9.2,9.2,50,0.00,,,0.00,WeatherDisplay:10.37,2013-01-10 09:33:00,
2013-01-10 03:35:00,31.4,14.9,29.91,SSE,166,9.2,9.2,50,0.00,,,0.00,WeatherDisplay:10.37,2013-01-10 09:35:00,
2013-01-10 03:36:00,31.4,14.9,29.91,SSE,166,9.2,9.2,50,0.00,,,0.00,WeatherDisplay:10.37,2013-01-10 09:36:00,
2013-01-10 03:37:00,31.3,14.8,29.91,SSE,166,9.2,9.2,50,0.00,,,0.00,WeatherDisplay:10.37,2013-01-10 09:37:00,
2013-01-10 03:39:00,31.2,14.7,29.91,SSE,166,9.2,9.2,50,0.00,,,0.00,WeatherDisplay:10.37,2013-01-10 09:39:00,
2013-01-10 03:41:00,31.0,14.5,29.91,SSE,165,9.2,9.2,50,0.00,,,0.00,WeatherDisplay:10.37,2013-01-10 09:41:00,
2013-01-10 03:44:00,31.1,14.6,29.91,SSE,164,10.4,10.4,50,0.00,,,0.00,WeatherDisplay:10.37,2013-01-10 09:44:00,
2013-01-10 03:45:00,31.0,14.5,29.91,SSE,163,10.4,10.4,50,0.00,,,0.00,WeatherDisplay:10.37,2013-01-10 09:45:00,
2013-01-10 03:47:00,30.9,14.4,29.91,SSE,162,9.2,9.2,50,0.00,,,0.00,WeatherDisplay:10.37,2013-01-10 09:47:00,
2013-01-10 03:50:00,30.8,14.3,29.91,SSE,163,7.0,0.0,50,0.00,,,0.00,WeatherDisplay:10.37,2013-01-10 09:50:00,
2013-01-10 03:52:00,30.8,14.3,29.91,SSE,161,9.2,9.2,50,0.00,,,0.00,WeatherDisplay:10.37,2013-01-10 09:52:00,
2013-01-10 03:53:00,30.8,14.3,29.91,SSE,162,9.2,9.2,50,0.00,,,0.00,WeatherDisplay:10.37,2013-01-10 09:53:00,
2013-01-10 03:57:00,31.0,14.5,29.91,SSE,164,9.2,9.2,50,0.00,,,0.00,WeatherDisplay:10.37,2013-01-10 09:57:00,
2013-01-10 03:58:00,31.0,14.5,29.91,SSE,164,8.1,8.1,50,0.00,,,0.00,WeatherDisplay:10.37,2013-01-10 09:58:00,
2013-01-10 04:02:00,30.8,14.3,29.91,SSE,163,7.0,7.0,50,0.00,,,0.00,WeatherDisplay:10.37,2013-01-10 10:02:00,
2013-01-10 04:04:00,30.5,14.0,29.91,SSE,162,7.0,7.0,50,0.00,,,0.00,WeatherDisplay:10.37,2013-01-10 10:04:00,
2013-01-10 04:05:00,30.5,14.0,29.91,SSE,163,7.0,7.0,50,0.00,,,0.00,WeatherDisplay:10.37,2013-01-10 10:05:00,
2013-01-10 04:10:00,30.4,14.0,29.91,SSE,163,8.0,8.0,50,0.00,,,0.00,WeatherDisplay:10.37,2013-01-10 10:10:00,
2013-01-10 04:11:00,30.4,14.0,29.91,SSE,163,8.1,8.1,50,0.00,,,0.00,WeatherDisplay:10.37,2013-01-10 10:11:00,
2013-01-10 04:15:00,29.6,13.2,29.91,SSE,163,3.5,3.5,50,0.00,,,0.00,WeatherDisplay:10.37,2013-01-10 10:15:00,
2013-01-10 04:16:00,29.6,13.2,29.91,SSE,163,6.0,6.0,50,0.00,,,0.00,WeatherDisplay:10.37,2013-01-10 10:16:00,
2013-01-10 04:17:00,29.6,13.2,29.91,SSE,163,6.9,6.9,50,0.00,,,0.00,WeatherDisplay:10.37,2013-01-10 10:17:00,
2013-01-10 04:20:00,29.6,13.2,29.91,SSE,161,8.1,8.1,50,0.00,,,0.00,WeatherDisplay:10.37,2013-01-10 10:20:00,
2013-01-10 04:22:00,29.8,13.4,29.91,SSE,161,9.2,9.2,50,0.00,,,0.00,WeatherDisplay:10.37,2013-01-10 10:22:00,
2013-01-10 04:24:00,29.9,13.5,29.91,SSE,161,9.2,9.2,50,0.00,,,0.00,WeatherDisplay:10.37,2013-01-10 10:24:00,
2013-01-10 04:25:00,29.8,13.4,29.91,SSE,161,9.2,9.2,50,0.00,,,0.00,WeatherDisplay:10.37,2013-01-10 10:25:00,
2013-01-10 04:27:00,29.6,13.2,29.91,SSE,161,8.1,8.1,50,0.00,,,0.00,WeatherDisplay:10.37,2013-01-10 10:27:00,
2013-01-10 04:30:00,29.3,12.9,29.91,SSE,161,5.8,5.8,50,0.00,,,0.00,WeatherDisplay:10.37,2013-01-10 10:30:00,
2013-01-10 04:35:00,29.3,12.9,29.91,SSE,161,3.5,3.5,50,0.00,,,0.00,WeatherDisplay:10.37,2013-01-10 10:35:00,
2013-01-10 04:36:00,29.3,12.9,29.91,SSE,161,3.5,3.5,50,0.00,,,0.00,WeatherDisplay:10.37,2013-01-10 10:36:00,
2013-01-10 04:38:00,30.0,13.6,29.91,SSE,161,4.0,4.0,50,0.00,,,0.00,WeatherDisplay:10.37,2013-01-10 10:38:00,
2013-01-10 04:41:00,29.9,13.5,29.91,SSE,161,3.5,3.5,50,0.00,,,0.00,WeatherDisplay:10.37,2013-01-10 10:41:00,
2013-01-10 04:42:00,29.8,13.4,29.91,SSE,161,5.0,5.0,50,0.00,,,0.00,WeatherDisplay:10.37,2013-01-10 10:42:00,
2013-01-10 04:45:00,29.5,13.1,29.91,SSE,161,4.6,4.6,50,0.00,,,0.00,WeatherDisplay:10.37,2013-01-10 10:45:00,
2013-01-10 04:46:00,29.5,13.1,29.91,SSE,161,6.0,6.0,50,0.00,,,0.00,WeatherDisplay:10.37,2013-01-10 10:46:00,
2013-01-10 04:48:00,29.3,12.9,29.91,SSE,161,5.8,5.8,50,0.00,,,0.00,WeatherDisplay:10.37,2013-01-10 10:48:00,
2013-01-10 04:50:00,29.2,12.9,29.91,SSE,161,3.0,0.0,50,0.00,,,0.00,WeatherDisplay:10.37,2013-01-10 10:50:00,
2013-01-10 04:52:00,29.1,12.8,29.91,SSE,161,5.0,5.0,50,0.00,,,0.00,WeatherDisplay:10.37,2013-01-10 10:52:00,
2013-01-10 04:53:00,29.1,12.8,29.91,SSE,161,4.6,4.6,50,0.00,,,0.00,WeatherDisplay:10.37,2013-01-10 10:53:00,
2013-01-10 04:55:00,29.2,12.8,29.91,SSE,160,4.0,4.0,50,0.00,,,0.00,WeatherDisplay:10.37,2013-01-10 10:55:00,
2013-01-10 04:56:00,29.2,12.8,29.91,SSE,160,4.0,4.0,50,0.00,,,0.00,WeatherDisplay:10.37,2013-01-10 10:56:00,
2013-01-10 04:57:00,29.3,12.9,29.91,SSE,161,6.9,6.9,50,0.00,,,0.00,WeatherDisplay:10.37,2013-01-10 10:57:00,
2013-01-10 05:01:00,29.2,12.8,29.91,SSE,160,4.0,4.0,50,0.00,,,0.00,WeatherDisplay:10.37,2013-01-10 11:01:00,
2013-01-10 05:02:00,29.1,12.8,29.91,SSE,161,5.0,5.0,50,0.00,,,0.00,WeatherDisplay:10.37,2013-01-10 11:02:00,
2013-01-10 05:03:00,29.1,12.8,29.91,SSE,160,4.6,4.6,50,0.00,,,0.00,WeatherDisplay:10.37,2013-01-10 11:03:00,
2013-01-10 05:04:00,29.1,12.8,29.91,SSE,160,4.6,4.6,50,0.00,,,0.00,WeatherDisplay:10.37,2013-01-10 11:04:00,
2013-01-10 05:07:00,29.5,13.1,29.91,SSE,160,4.6,4.6,50,0.00,,,0.00,WeatherDisplay:10.37,2013-01-10 11:07:00,
2013-01-10 05:09:00,29.4,13.0,29.91,SSE,160,4.6,4.6,50,0.00,,,0.00,WeatherDisplay:10.37,2013-01-10 11:09:00,
2013-01-10 05:10:00,29.3,12.9,29.91,SSE,160,3.5,3.5,50,0.00,,,0.00,WeatherDisplay:10.37,2013-01-10 11:10:00,
2013-01-10 05:12:00,29.2,12.8,29.91,SSE,161,4.0,4.2,50,0.00,,,0.00,WeatherDisplay:10.37,2013-01-10 11:12:00,
2013-01-10 05:14:00,29.1,12.8,29.91,SSE,160,4.6,4.6,50,0.00,,,0.00,WeatherDisplay:10.37,2013-01-10 11:14:00,
2013-01-10 05:16:00,29.2,12.8,29.91,SSE,160,5.0,5.0,50,0.00,,,0.00,WeatherDisplay:10.37,2013-01-10 11:16:00,
2013-01-10 05:17:00,29.2,12.8,29.91,SSE,161,4.6,4.6,50,0.00,,,0.00,WeatherDisplay:10.37,2013-01-10 11:17:00,
2013-01-10 05:18:00,29.2,12.8,29.91,SSE,160,4.0,4.0,50,0.00,,,0.00,WeatherDisplay:10.37,2013-01-10 11:18:00,
2013-01-10 05:20:00,29.3,12.9,29.91,SSE,160,5.8,5.8,50,0.00,,,0.00,WeatherDisplay:10.37,2013-01-10 11:20:00,
2013-01-10 05:24:00,29.4,13.0,29.91,SSE,163,8.0,8.0,50,0.00,,,0.00,WeatherDisplay:10.37,2013-01-10 11:24:00,
2013-01-10 05:25:00,29.6,13.2,29.91,SSE,165,8.1,8.1,50,0.00,,,0.00,WeatherDisplay:10.37,2013-01-10 11:25:00,
2013-01-10 05:27:00,29.8,13.4,29.91,SSE,165,8.1,8.1,50,0.00,,,0.00,WeatherDisplay:10.37,2013-01-10 11:27:00,
2013-01-10 05:29:00,29.6,13.2,29.91,SSE,165,6.9,6.9,50,0.00,,,0.00,WeatherDisplay:10.37,2013-01-10 11:29:00,
2013-01-10 05:30:00,29.6,13.2,29.91,SSE,164,6.0,0.0,50,0.00,,,0.00,WeatherDisplay:10.37,2013-01-10 11:30:00,
2013-01-10 05:32:00,29.6,13.2,29.91,SSE,165,8.1,8.1,50,0.00,,,0.00,WeatherDisplay:10.37,2013-01-10 11:32:00,
2013-01-10 05:37:00,29.2,12.8,29.91,SSE,163,9.2,9.2,50,0.00,,,0.00,WeatherDisplay:10.37,2013-01-10 11:37:00,
2013-01-10 05:38:00,29.1,12.8,29.91,SSE,163,9.2,9.2,50,0.00,,,0.00,WeatherDisplay:10.37,2013-01-10 11:38:00,
2013-01-10 05:43:00,28.8,12.5,29.91,SSE,163,6.9,6.9,50,0.00,,,0.00,WeatherDisplay:10.37,2013-01-10 11:43:00,
2013-01-10 05:44:00,28.8,12.5,29.91,SSE,163,6.9,6.9,50,0.00,,,0.00,WeatherDisplay:10.37,2013-01-10 11:44:00,
2013-01-10 05:45:00,28.7,12.4,29.91,SSE,163,6.9,6.9,50,0.00,,,0.00,WeatherDisplay:10.37,2013-01-10 11:45:00,
2013-01-10 05:46:00,28.6,12.3,29.91,SSE,163,5.8,5.8,50,0.00,,,0.00,WeatherDisplay:10.37,2013-01-10 11:46:00,
2013-01-10 05:49:00,28.3,12.0,29.91,SSE,163,5.8,5.8,50,0.00,,,0.00,WeatherDisplay:10.37,2013-01-10 11:49:00,
2013-01-10 05:50:00,28.3,12.0,29.91,SSE,163,4.6,4.6,50,0.00,,,0.00,WeatherDisplay:10.37,2013-01-10 11:50:00,
2013-01-10 05:52:00,28.5,12.2,29.91,SSE,163,3.5,3.5,50,0.00,,,0.00,WeatherDisplay:10.37,2013-01-10 11:52:00,
2013-01-10 05:55:00,28.4,12.1,29.91,SSE,163,5.8,5.8,50,0.00,,,0.00,WeatherDisplay:10.37,2013-01-10 11:55:00,
2013-01-10 05:56:00,28.4,12.1,29.91,SSE,163,8.0,8.0,50,0.00,,,0.00,WeatherDisplay:10.37,2013-01-10 11:56:00,
2013-01-10 05:58:00,28.4,12.1,29.91,SSE,163,8.1,8.1,50,0.00,,,0.00,WeatherDisplay:10.37,2013-01-10 11:58:00,
2013-01-10 06:01:00,28.1,11.8,29.91,SSE,163,4.6,4.6,50,0.00,,,0.00,WeatherDisplay:10.37,2013-01-10 12:01:00,
2013-01-10 06:02:00,28.1,11.8,29.91,SSE,161,8.1,8.1,50,0.00,,,0.00,WeatherDisplay:10.37,2013-01-10 12:02:00,
2013-01-10 06:03:00,28.2,11.9,29.91,SSE,160,5.8,5.8,50,0.00,,,0.00,WeatherDisplay:10.37,2013-01-10 12:03:00,
2013-01-10 06:06:00,28.3,12.0,29.91,SSE,160,8.1,8.1,50,0.00,,,0.00,WeatherDisplay:10.37,2013-01-10 12:06:00,
2013-01-10 06:07:00,28.2,11.9,29.91,SSE,160,4.6,4.6,50,0.00,,,0.00,WeatherDisplay:10.37,2013-01-10 12:07:00,
2013-01-10 06:08:00,28.1,11.8,29.91,SSE,161,8.0,8.0,50,0.00,,,0.00,WeatherDisplay:10.37,2013-01-10 12:08:00,
2013-01-10 06:10:00,27.8,11.5,29.91,SSE,161,7.0,7.0,50,0.00,,,0.00,WeatherDisplay:10.37,2013-01-10 12:10:00,
2013-01-10 06:12:00,27.8,11.5,29.91,SSE,159,6.9,6.9,50,0.00,,,0.00,WeatherDisplay:10.37,2013-01-10 12:12:00,
2013-01-10 06:13:00,27.8,11.5,29.91,SSE,159,6.9,6.9,50,0.00,,,0.00,WeatherDisplay:10.37,2013-01-10 12:13:00,
2013-01-10 06:14:00,27.8,11.5,29.91,SSE,159,6.0,6.0,50,0.00,,,0.00,WeatherDisplay:10.37,2013-01-10 12:14:00,
2013-01-10 06:15:00,27.6,11.4,29.91,SSE,159,6.0,6.0,50,0.00,,,0.00,WeatherDisplay:10.37,2013-01-10 12:15:00,
2013-01-10 06:18:00,27.9,11.6,29.91,SSE,160,8.1,8.1,50,0.00,,,0.00,WeatherDisplay:10.37,2013-01-10 12:18:00,
2013-01-10 06:19:00,27.9,11.6,29.91,SSE,160,8.1,8.1,50,0.00,,,0.00,WeatherDisplay:10.37,2013-01-10 12:19:00,
2013-01-10 06:20:00,27.9,11.7,29.91,SSE,160,7.0,0.0,50,0.00,,,0.00,WeatherDisplay:10.37,2013-01-10 12:20:00,
2013-01-10 06:22:00,27.9,11.6,29.91,SSE,160,9.2,9.2,50,0.00,,,0.00,WeatherDisplay:10.37,2013-01-10 12:22:00,
2013-01-10 06:24:00,28.0,11.7,29.91,SSE,162,9.2,9.2,50,0.00,,,0.00,WeatherDisplay:10.37,2013-01-10 12:24:00,
2013-01-10 06:25:00,28.3,12.0,29.91,SSE,163,9.2,9.2,50,0.00,,,0.00,WeatherDisplay:10.37,2013-01-10 12:25:00,
2013-01-10 06:27:00,28.4,12.1,29.91,SSE,160,8.1,8.1,50,0.00,,,0.00,WeatherDisplay:10.37,2013-01-10 12:27:00,
2013-01-10 06:30:00,28.0,11.7,29.91,SSE,160,6.0,6.0,50,0.00,,,0.00,WeatherDisplay:10.37,2013-01-10 12:30:00,
2013-01-10 06:32:00,27.8,11.5,29.91,SSE,160,5.8,5.8,50,0.00,,,0.00,WeatherDisplay:10.37,2013-01-10 12:32:00,
2013-01-10 06:33:00,27.7,11.5,29.91,SSE,160,7.0,7.0,50,0.00,,,0.00,WeatherDisplay:10.37,2013-01-10 12:33:00,
2013-01-10 06:35:00,27.5,11.3,29.91,SSE,160,4.6,4.6,50,0.00,,,0.00,WeatherDisplay:10.37,2013-01-10 12:35:00,
2013-01-10 06:37:00,27.5,11.3,29.91,SSE,160,7.0,7.0,50,0.00,,,0.00,WeatherDisplay:10.37,2013-01-10 12:37:00,
2013-01-10 06:39:00,27.4,11.2,29.91,SSE,160,7.0,7.0,50,0.00,,,0.00,WeatherDisplay:10.37,2013-01-10 12:39:00,
2013-01-10 06:42:00,27.9,11.6,29.91,SSE,159,10.4,10.4,50,0.00,,,0.00,WeatherDisplay:10.37,2013-01-10 12:42:00,
2013-01-10 06:44:00,28.1,11.8,29.91,SSE,160,7.0,7.0,50,0.00,,,0.00,WeatherDisplay:10.37,2013-01-10 12:44:00,
2013-01-10 06:45:00,28.1,11.8,29.91,SSE,162,6.9,6.9,50,0.00,,,0.00,WeatherDisplay:10.37,2013-01-10 12:45:00,
2013-01-10 06:48:00,28.3,12.0,29.91,SSE,161,9.0,9.0,50,0.00,,,0.00,WeatherDisplay:10.37,2013-01-10 12:48:00,
2013-01-10 06:50:00,28.6,12.3,29.91,SSE,159,9.2,9.2,50,0.00,,,0.00,WeatherDisplay:10.37,2013-01-10 12:50:00,
2013-01-10 06:53:00,29.0,12.7,29.91,SSE,163,8.1,8.1,50,0.00,,,0.00,WeatherDisplay:10.37,2013-01-10 12:53:00,
2013-01-10 06:54:00,29.0,12.7,29.91,SSE,163,4.0,4.0,50,0.00,,,0.00,WeatherDisplay:10.37,2013-01-10 12:54:00,
2013-01-10 06:57:00,28.6,12.3,29.91,SSE,161,4.6,4.6,50,0.00,,,0.00,WeatherDisplay:10.37,2013-01-10 12:57:00,
2013-01-10 06:58:00,28.4,12.1,29.91,SSE,156,3.5,3.5,50,0.00,,,0.00,WeatherDisplay:10.37,2013-01-10 12:58:00,
2013-01-10 06:59:00,28.3,12.0,29.91,SSE,156,3.5,3.5,50,0.00,,,0.00,WeatherDisplay:10.37,2013-01-10 12:59:00,
2013-01-10 07:00:00,28.3,12.0,29.91,SSE,156,3.5,3.5,50,0.00,,,0.00,WeatherDisplay:10.37,2013-01-10 13:00:00,
2013-01-10 07:08:00,28.3,12.0,29.91,SSE,156,3.5,3.5,50,0.00,CLR,,0.00,WeatherDisplay:10.37,2013-01-10 13:08:00,
2013-01-10 07:09:00,28.3,12.0,29.91,SSE,156,3.5,3.5,50,0.00,CLR,,0.00,WeatherDisplay:10.37,2013-01-10 13:09:00,
2013-01-10 07:14:00,28.4,12.1,29.91,SSE,156,5.0,5.0,50,0.00,CLR,,0.00,WeatherDisplay:10.37,2013-01-10 13:14:00,
2013-01-10 07:16:00,28.4,12.1,29.91,SSE,155,6.0,6.0,50,0.00,CLR,,0.00,WeatherDisplay:10.37,2013-01-10 13:16:00,
2013-01-10 07:22:00,28.1,11.8,29.91,SSE,155,7.0,7.0,50,0.00,CLR,,0.00,WeatherDisplay:10.37,2013-01-10 13:22:00,
2013-01-10 07:23:00,28.4,12.1,29.91,SSE,157,6.9,6.9,50,0.00,CLR,,0.00,WeatherDisplay:10.37,2013-01-10 13:23:00,
2013-01-10 07:26:00,28.7,12.4,29.91,SSE,158,6.0,6.0,50,0.00,CLR,,0.00,WeatherDisplay:10.37,2013-01-10 13:26:00,
2013-01-10 07:27:00,28.7,12.4,29.91,SSE,158,6.9,6.9,50,0.00,CLR,,0.00,WeatherDisplay:10.37,2013-01-10 13:27:00,
2013-01-10 07:30:00,28.8,12.5,29.91,SSE,158,5.8,5.8,50,0.00,CLR,,0.00,WeatherDisplay:10.37,2013-01-10 13:30:00,
2013-01-10 07:32:00,28.9,12.6,29.91,SSE,158,4.6,4.6,50,0.00,CLR,,0.00,WeatherDisplay:10.37,2013-01-10 13:32:00,
2013-01-10 07:33:00,29.0,12.7,29.91,SSE,156,5.0,5.0,50,0.00,CLR,,0.00,WeatherDisplay:10.37,2013-01-10 13:33:00,
2013-01-10 07:36:00,30.0,13.6,29.91,SSE,154,6.0,6.0,50,0.00,CLR,,0.00,WeatherDisplay:10.37,2013-01-10 13:36:00,
2013-01-10 07:39:00,30.1,13.7,29.91,SSE,154,6.0,6.0,50,0.00,CLR,,0.00,WeatherDisplay:10.37,2013-01-10 13:39:00,
2013-01-10 07:42:00,30.0,13.6,29.91,SSE,154,6.0,6.0,50,0.00,CLR,,0.00,WeatherDisplay:10.37,2013-01-10 13:42:00,
2013-01-10 07:43:00,30.0,13.6,29.91,SSE,154,5.8,5.8,50,0.00,CLR,,0.00,WeatherDisplay:10.37,2013-01-10 13:43:00,
2013-01-10 07:45:00,30.1,13.7,29.91,SSE,154,6.0,6.0,50,0.00,CLR,,0.00,WeatherDisplay:10.37,2013-01-10 13:45:00,
2013-01-10 07:48:00,30.4,14.0,29.91,SSE,154,5.0,5.0,50,0.00,CLR,,0.00,WeatherDisplay:10.37,2013-01-10 13:48:00,
2013-01-10 07:49:00,30.4,14.0,29.91,SSE,154,4.6,4.6,50,0.00,CLR,,0.00,WeatherDisplay:10.37,2013-01-10 13:49:00,
2013-01-10 07:53:00,30.7,14.2,29.91,SSE,154,5.0,5.0,50,0.00,CLR,,0.00,WeatherDisplay:10.37,2013-01-10 13:53:00,
2013-01-10 07:55:00,30.7,14.2,29.91,SSE,154,4.6,4.6,50,0.00,CLR,,0.00,WeatherDisplay:10.37,2013-01-10 13:55:00,
2013-01-10 07:56:00,30.8,14.3,29.91,SSE,154,5.0,5.0,50,0.00,CLR,,0.00,WeatherDisplay:10.37,2013-01-10 13:56:00,
2013-01-10 07:59:00,30.8,14.3,29.91,SSE,148,4.0,4.0,50,0.00,CLR,,0.00,WeatherDisplay:10.37,2013-01-10 13:59:00,
2013-01-10 08:01:00,30.7,14.2,29.91,SE,143,3.5,3.5,50,0.00,CLR,,0.00,WeatherDisplay:10.37,2013-01-10 14:01:00,
2013-01-10 08:02:00,30.4,14.0,29.91,SE,143,3.5,3.5,50,0.00,CLR,,0.00,WeatherDisplay:10.37,2013-01-10 14:02:00,
2013-01-10 08:04:00,30.3,13.9,29.91,SE,143,3.5,3.5,50,0.00,CLR,,0.00,WeatherDisplay:10.37,2013-01-10 14:04:00,
2013-01-10 08:06:00,30.5,14.0,29.91,SE,143,3.5,3.5,50,0.00,CLR,,0.00,WeatherDisplay:10.37,2013-01-10 14:06:00,
2013-01-10 08:09:00,30.8,14.3,29.91,SE,142,4.0,4.0,50,0.00,CLR,,0.00,WeatherDisplay:10.37,2013-01-10 14:09:00,
2013-01-10 08:10:00,30.8,14.3,29.91,SE,143,3.0,0.0,50,0.00,CLR,CLR,0.00,WeatherDisplay:10.37,2013-01-10 14:10:00,
2013-01-10 08:12:00,31.0,14.5,29.91,SE,133,4.6,4.6,50,0.00,CLR,,0.00,WeatherDisplay:10.37,2013-01-10 14:12:00,
2013-01-10 08:15:00,31.3,14.8,29.91,SE,128,4.6,4.6,50,0.00,CLR,,0.00,WeatherDisplay:10.37,2013-01-10 14:15:00,
2013-01-10 08:16:00,31.4,14.9,29.91,SE,128,3.5,3.5,50,0.00,CLR,,0.00,WeatherDisplay:10.37,2013-01-10 14:16:00,
2013-01-10 08:17:00,31.6,15.1,29.91,SE,128,3.5,3.5,50,0.00,CLR,,0.00,WeatherDisplay:10.37,2013-01-10 14:17:00,
2013-01-10 08:20:00,31.7,15.2,29.91,SE,129,5.0,0.0,50,0.00,CLR,CLR,0.00,WeatherDisplay:10.37,2013-01-10 14:20:00,
2013-01-10 08:21:00,31.7,15.2,29.91,SE,128,6.0,6.0,50,0.00,CLR,,0.00,WeatherDisplay:10.37,2013-01-10 14:21:00,
2013-01-10 08:23:00,31.9,15.3,29.91,SE,129,6.9,6.9,50,0.00,CLR,,0.00,WeatherDisplay:10.37,2013-01-10 14:23:00,
2013-01-10 08:26:00,32.0,15.4,29.91,SE,126,6.0,6.0,50,0.00,CLR,,0.00,WeatherDisplay:10.37,2013-01-10 14:26:00,
2013-01-10 08:28:00,32.0,15.4,29.91,SE,125,5.0,5.0,50,0.00,CLR,,0.00,WeatherDisplay:10.37,2013-01-10 14:28:00,
2013-01-10 08:29:00,32.0,15.4,29.91,ESE,123,5.8,5.8,50,0.00,CLR,,0.00,WeatherDisplay:10.37,2013-01-10 14:29:00,
2013-01-10 08:31:00,32.0,15.4,29.91,ESE,123,5.0,5.0,50,0.00,CLR,,0.00,WeatherDisplay:10.37,2013-01-10 14:31:00,
2013-01-10 08:33:00,32.0,15.4,29.91,ESE,123,5.0,5.0,50,0.00,CLR,,0.00,WeatherDisplay:10.37,2013-01-10 14:33:00,
2013-01-10 08:34:00,32.0,15.4,29.91,ESE,123,4.6,4.6,50,0.00,CLR,,0.00,WeatherDisplay:10.37,2013-01-10 14:34:00,
2013-01-10 08:38:00,32.4,15.8,29.91,ESE,123,4.6,4.6,50,0.00,CLR,,0.00,WeatherDisplay:10.37,2013-01-10 14:38:00,
2013-01-10 08:39:00,32.4,15.8,29.91,ESE,123,4.6,4.6,50,0.00,CLR,,0.00,WeatherDisplay:10.37,2013-01-10 14:39:00,
2013-01-10 08:40:00,32.3,15.7,29.91,ESE,123,4.0,4.0,50,0.00,CLR,,0.00,WeatherDisplay:10.37,2013-01-10 14:40:00,
2013-01-10 08:44:00,32.2,15.6,29.91,ESE,123,4.0,4.0,50,0.00,CLR,,0.00,WeatherDisplay:10.37,2013-01-10 14:44:00,
2013-01-10 08:45:00,32.2,15.6,29.91,ESE,123,4.0,4.0,50,0.00,CLR,,0.00,WeatherDisplay:10.37,2013-01-10 14:45:00,
2013-01-10 08:47:00,32.3,15.7,29.91,ESE,123,4.0,4.0,50,0.00,CLR,,0.00,WeatherDisplay:10.37,2013-01-10 14:47:00,
2013-01-10 08:50:00,32.6,16.0,29.91,ESE,123,5.0,5.0,50,0.00,CLR,,0.00,WeatherDisplay:10.37,2013-01-10 14:50:00,
2013-01-10 08:51:00,32.7,16.1,29.91,ESE,123,4.6,4.6,50,0.00,CLR,,0.00,WeatherDisplay:10.37,2013-01-10 14:51:00,
2013-01-10 08:52:00,32.5,15.9,29.91,ESE,123,4.0,4.0,50,0.00,CLR,,0.00,WeatherDisplay:10.37,2013-01-10 14:52:00,
2013-01-10 08:56:00,32.7,16.1,29.91,ESE,123,4.0,4.0,50,0.00,CLR,,0.00,WeatherDisplay:10.37,2013-01-10 14:56:00,
2013-01-10 08:58:00,32.7,16.1,29.91,ESE,123,3.5,3.5,50,0.00,CLR,,0.00,WeatherDisplay:10.37,2013-01-10 14:58:00,
2013-01-10 09:00:00,32.7,16.1,29.91,ESE,123,2.0,0.0,50,0.00,CLR,CLR,0.00,WeatherDisplay:10.37,2013-01-10 15:00:00,
2013-01-10 09:03:00,33.2,16.5,29.91,ESE,123,3.5,3.5,50,0.00,CLR,,0.00,WeatherDisplay:10.37,2013-01-10 15:03:00,
2013-01-10 09:04:00,33.3,16.6,29.91,ESE,123,3.5,3.5,50,0.00,CLR,,0.00,WeatherDisplay:10.37,2013-01-10 15:04:00,
2013-01-10 09:05:00,33.4,16.7,29.91,ESE,123,3.5,3.5,50,0.00,CLR,,0.00,WeatherDisplay:10.37,2013-01-10 15:05:00,
2013-01-10 09:09:00,33.5,16.8,29.91,ESE,123,4.0,4.0,50,0.00,CLR,,0.00,WeatherDisplay:10.37,2013-01-10 15:09:00,
2013-01-10 09:10:00,33.5,16.8,29.91,ESE,123,2.0,0.0,50,0.00,CLR,CLR,0.00,WeatherDisplay:10.37,2013-01-10 15:10:00,
2013-01-10 09:11:00,33.5,16.8,29.91,ESE,123,3.5,3.5,50,0.00,CLR,,0.00,WeatherDisplay:10.37,2013-01-10 15:11:00,
2013-01-10 09:14:00,33.6,16.9,29.91,ESE,123,4.0,4.0,50,0.00,CLR,,0.00,WeatherDisplay:10.37,2013-01-10 15:14:00,
2013-01-10 09:15:00,33.6,16.9,29.91,SE,124,4.6,4.6,50,0.00,CLR,,0.00,WeatherDisplay:10.37,2013-01-10 15:15:00,
2013-01-10 09:16:00,33.7,17.0,29.91,ESE,123,4.6,4.6,50,0.00,CLR,,0.00,WeatherDisplay:10.37,2013-01-10 15:16:00,
2013-01-10 09:19:00,33.9,17.2,29.91,SE,124,4.6,4.6,50,0.00,CLR,,0.00,WeatherDisplay:10.37,2013-01-10 15:19:00,
2013-01-10 09:21:00,33.7,17.0,29.91,SE,124,3.5,3.5,50,0.00,CLR,,0.00,WeatherDisplay:10.37,2013-01-10 15:21:00,
2013-01-10 09:22:00,33.7,17.0,29.91,ESE,123,2.3,2.3,50,0.00,CLR,,0.00,WeatherDisplay:10.37,2013-01-10 15:22:00,
2013-01-10 09:24:00,33.8,17.1,29.91,ESE,123,2.3,2.3,50,0.00,CLR,,0.00,WeatherDisplay:10.37,2013-01-10 15:24:00,
2013-01-10 09:27:00,34.0,17.3,29.91,ESE,123,2.3,2.3,50,0.00,CLR,,0.00,WeatherDisplay:10.37,2013-01-10 15:27:00,
2013-01-10 09:28:00,34.3,17.6,29.91,ESE,123,3.5,3.5,50,0.00,CLR,,0.00,WeatherDisplay:10.37,2013-01-10 15:28:00,
2013-01-10 09:29:00,34.4,17.7,29.91,ESE,123,4.6,4.6,50,0.00,CLR,,0.00,WeatherDisplay:10.37,2013-01-10 15:29:00,
2013-01-10 09:32:00,34.7,17.9,29.91,ESE,123,3.5,3.5,50,0.00,CLR,,0.00,WeatherDisplay:10.37,2013-01-10 15:32:00,
2013-01-10 09:33:00,34.8,18.0,29.91,ESE,123,4.0,4.0,50,0.00,CLR,,0.00,WeatherDisplay:10.37,2013-01-10 15:33:00,
2013-01-10 09:35:00,34.9,18.1,29.91,ESE,123,4.6,4.6,50,0.00,CLR,,0.00,WeatherDisplay:10.37,2013-01-10 15:35:00,
2013-01-10 09:38:00,35.1,18.3,29.91,SE,126,5.0,5.0,50,0.00,CLR,,0.00,WeatherDisplay:10.37,2013-01-10 15:38:00,
2013-01-10 09:39:00,35.1,18.3,29.91,SE,128,5.0,5.0,50,0.00,CLR,,0.00,WeatherDisplay:10.37,2013-01-10 15:39:00,
2013-01-10 09:41:00,35.5,18.7,29.91,SSE,160,6.9,6.9,50,0.00,CLR,,0.00,WeatherDisplay:10.37,2013-01-10 15:41:00,
2013-01-10 09:45:00,35.9,19.0,29.91,SSE,160,6.0,6.0,50,0.00,CLR,,0.00,WeatherDisplay:10.37,2013-01-10 15:45:00,
2013-01-10 09:48:00,36.1,19.2,29.91,SSE,164,10.4,10.4,50,0.00,CLR,,0.00,WeatherDisplay:10.37,2013-01-10 15:48:00,
2013-01-10 09:49:00,36.2,19.3,29.91,SSE,160,11.5,11.5,50,0.00,CLR,,0.00,WeatherDisplay:10.37,2013-01-10 15:49:00,
2013-01-10 09:50:00,36.3,19.4,29.91,SSE,160,6.9,6.9,50,0.00,CLR,,0.00,WeatherDisplay:10.37,2013-01-10 15:50:00,
2013-01-10 09:53:00,36.5,19.6,29.91,SSE,160,10.4,10.4,50,0.00,CLR,,0.00,WeatherDisplay:10.37,2013-01-10 15:53:00,
2013-01-10 09:55:00,36.7,19.8,29.91,SSE,154,8.1,8.1,50,0.00,CLR,,0.00,WeatherDisplay:10.37,2013-01-10 15:55:00,
2013-01-10 09:58:00,36.9,20.0,29.91,SSE,152,5.8,5.8,50,0.00,CLR,,0.00,WeatherDisplay:10.37,2013-01-10 15:58:00,
2013-01-10 10:00:00,37.0,20.1,29.91,SSE,151,5.0,5.0,50,0.00,CLR,,0.00,WeatherDisplay:10.37,2013-01-10 16:00:00,
2013-01-10 10:03:00,37.1,20.2,29.91,SSE,154,6.9,6.9,50,0.00,CLR,,0.00,WeatherDisplay:10.37,2013-01-10 16:03:00,
2013-01-10 10:04:00,37.1,20.2,29.91,SSE,154,5.8,5.8,50,0.00,CLR,,0.00,WeatherDisplay:10.37,2013-01-10 16:04:00,
2013-01-10 10:05:00,37.1,20.2,29.91,SE,146,6.0,6.0,50,0.00,CLR,,0.00,WeatherDisplay:10.37,2013-01-10 16:05:00,
2013-01-10 10:06:00,37.2,20.2,29.91,SE,146,6.9,6.9,50,0.00,CLR,,0.00,WeatherDisplay:10.37,2013-01-10 16:06:00,
2013-01-10 10:10:00,37.1,20.2,29.91,SE,146,7.0,7.0,50,0.00,CLR,,0.00,WeatherDisplay:10.37,2013-01-10 16:10:00,
2013-01-10 10:11:00,37.1,20.2,29.91,SE,146,7.0,7.0,50,0.00,CLR,,0.00,WeatherDisplay:10.37,2013-01-10 16:11:00,
2013-01-10 10:13:00,37.1,20.2,29.91,SE,145,6.9,6.9,50,0.00,CLR,,0.00,WeatherDisplay:10.37,2013-01-10 16:13:00,
2013-01-10 10:15:00,37.1,20.2,29.91,SE,146,7.0,7.0,50,0.00,CLR,,0.00,WeatherDisplay:10.37,2013-01-10 16:15:00,
2013-01-10 10:16:00,37.2,20.2,29.91,SE,145,5.8,5.8,50,0.00,CLR,,0.00,WeatherDisplay:10.37,2013-01-10 16:16:00,
2013-01-10 10:20:00,37.8,20.8,29.91,SE,141,6.9,6.9,50,0.00,CLR,,0.00,WeatherDisplay:10.37,2013-01-10 16:20:00,
2013-01-10 10:23:00,37.7,20.7,29.91,SE,129,5.0,5.0,50,0.00,CLR,,0.00,WeatherDisplay:10.37,2013-01-10 16:23:00,
2013-01-10 10:26:00,38.0,21.0,29.91,SE,129,5.0,5.0,50,0.00,CLR,,0.00,WeatherDisplay:10.37,2013-01-10 16:26:00,
2013-01-10 10:27:00,38.1,21.1,29.91,SE,128,4.6,4.6,50,0.00,CLR,,0.00,WeatherDisplay:10.37,2013-01-10 16:27:00,
2013-01-10 10:29:00,38.3,21.3,29.91,SE,131,5.8,5.8,50,0.00,CLR,,0.00,WeatherDisplay:10.37,2013-01-10 16:29:00,
2013-01-10 10:31:00,38.2,21.2,29.91,SE,138,8.1,8.1,50,0.00,CLR,,0.00,WeatherDisplay:10.37,2013-01-10 16:31:00,
2013-01-10 10:33:00,38.0,21.0,29.91,SE,138,8.1,8.1,50,0.00,CLR,,0.00,WeatherDisplay:10.37,2013-01-10 16:33:00,
2013-01-10 10:35:00,38.3,21.3,29.91,SSE,148,8.1,8.1,50,0.00,CLR,,0.00,WeatherDisplay:10.37,2013-01-10 16:35:00,
2013-01-10 10:37:00,38.5,21.5,29.91,SE,138,9.2,9.2,50,0.00,CLR,,0.00,WeatherDisplay:10.37,2013-01-10 16:37:00,
2013-01-10 10:38:00,38.5,21.5,29.91,SE,138,7.0,7.0,50,0.00,CLR,,0.00,WeatherDisplay:10.37,2013-01-10 16:38:00,
2013-01-10 10:39:00,38.5,21.5,29.91,SE,136,8.0,8.0,50,0.00,CLR,,0.00,WeatherDisplay:10.37,2013-01-10 16:39:00,
2013-01-10 10:40:00,38.5,21.4,29.91,SE,141,5.0,0.0,50,0.00,CLR,CLR,0.00,WeatherDisplay:10.37,2013-01-10 16:40:00,
2013-01-10 10:44:00,38.5,21.5,29.91,SE,134,8.1,8.1,50,0.00,CLR,,0.00,WeatherDisplay:10.37,2013-01-10 16:44:00,
2013-01-10 10:46:00,38.5,21.5,29.91,SE,133,9.2,9.2,50,0.00,CLR,,0.00,WeatherDisplay:10.37,2013-01-10 16:46:00,
2013-01-10 10:47:00,38.4,21.4,29.91,SE,137,10.4,10.4,50,0.00,CLR,,0.00,WeatherDisplay:10.37,2013-01-10 16:47:00,
2013-01-10 10:50:00,38.6,21.5,29.91,SE,133,9.2,9.2,50,0.00,CLR,,0.00,WeatherDisplay:10.37,2013-01-10 16:50:00,
2013-01-10 10:51:00,38.6,21.5,29.91,SE,136,9.2,9.2,50,0.00,CLR,,0.00,WeatherDisplay:10.37,2013-01-10 16:51:00,
2013-01-10 10:52:00,38.7,21.6,29.91,SE,134,5.8,5.8,50,0.00,CLR,,0.00,WeatherDisplay:10.37,2013-01-10 16:52:00,
2013-01-10 10:55:00,38.7,21.6,29.91,SE,132,9.0,9.0,50,0.00,CLR,,0.00,WeatherDisplay:10.37,2013-01-10 16:55:00,
2013-01-10 10:58:00,38.5,21.5,29.91,SE,139,11.0,11.0,50,0.00,CLR,,0.00,WeatherDisplay:10.37,2013-01-10 16:58:00,
2013-01-10 11:00:00,38.7,21.6,29.91,SE,138,8.0,0.0,50,0.00,CLR,CLR,0.00,WeatherDisplay:10.37,2013-01-10 17:00:00,
2013-01-10 11:01:00,38.8,21.7,29.91,SE,141,8.1,8.1,50,0.00,CLR,,0.00,WeatherDisplay:10.37,2013-01-10 17:01:00,
2013-01-10 11:03:00,38.9,21.8,29.91,SE,136,9.2,9.2,50,0.00,CLR,,0.00,WeatherDisplay:10.37,2013-01-10 17:03:00,
2013-01-10 11:05:00,38.9,21.8,29.91,SSE,149,9.2,9.2,50,0.00,CLR,,0.00,WeatherDisplay:10.37,2013-01-10 17:05:00,
2013-01-10 11:07:00,38.8,21.7,29.91,SE,143,9.2,9.2,50,0.00,CLR,,0.00,WeatherDisplay:10.37,2013-01-10 17:07:00,
2013-01-10 11:09:00,39.0,21.9,29.91,SE,146,9.2,9.2,50,0.00,CLR,,0.00,WeatherDisplay:10.37,2013-01-10 17:09:00,
2013-01-10 11:10:00,39.0,21.9,29.91,SE,143,7.0,0.0,50,0.00,CLR,CLR,0.00,WeatherDisplay:10.37,2013-01-10 17:10:00,
2013-01-10 11:12:00,39.4,22.3,29.91,SSE,148,13.0,13.0,50,0.00,CLR,,0.00,WeatherDisplay:10.37,2013-01-10 17:12:00,
2013-01-10 11:14:00,39.2,22.1,29.91,SSE,149,9.2,9.2,50,0.00,CLR,,0.00,WeatherDisplay:10.37,2013-01-10 17:14:00,
2013-01-10 11:19:00,39.4,22.3,29.91,SSE,147,9.2,9.2,50,0.00,CLR,,0.00,WeatherDisplay:10.37,2013-01-10 17:19:00,
2013-01-10 11:20:00,39.3,22.2,29.91,SSE,149,9.2,9.2,50,0.00,CLR,,0.00,WeatherDisplay:10.37,2013-01-10 17:20:00,
2013-01-10 11:25:00,39.3,22.2,29.91,SE,138,8.1,8.1,50,0.00,CLR,,0.00,WeatherDisplay:10.37,2013-01-10 17:25:00,
2013-01-10 11:29:00,39.3,22.2,29.91,SSE,157,9.2,9.2,50,0.00,CLR,,0.00,WeatherDisplay:10.37,2013-01-10 17:29:00,
2013-01-10 11:30:00,39.3,22.2,29.91,SSE,160,8.1,8.1,50,0.00,CLR,,0.00,WeatherDisplay:10.37,2013-01-10 17:30:00,
2013-01-10 11:31:00,39.2,22.1,29.91,SSE,157,9.2,9.2,50,0.00,CLR,,0.00,WeatherDisplay:10.37,2013-01-10 17:31:00,
2013-01-10 11:35:00,39.1,22.0,29.91,SSE,165,11.5,11.5,50,0.00,CLR,,0.00,WeatherDisplay:10.37,2013-01-10 17:35:00,
2013-01-10 11:36:00,39.0,21.9,29.91,SSE,167,11.5,11.5,50,0.00,CLR,,0.00,WeatherDisplay:10.37,2013-01-10 17:36:00,
2013-01-10 11:40:00,39.0,21.9,29.91,SSE,162,8.0,0.0,50,0.00,CLR,CLR,0.00,WeatherDisplay:10.37,2013-01-10 17:40:00,
2013-01-10 11:42:00,38.9,21.8,29.91,SSE,163,11.5,11.5,50,0.00,CLR,,0.00,WeatherDisplay:10.37,2013-01-10 17:42:00,
2013-01-10 11:46:00,38.8,21.7,29.91,SSE,154,11.0,11.0,50,0.00,CLR,,0.00,WeatherDisplay:10.37,2013-01-10 17:46:00,
2013-01-10 11:47:00,38.8,21.7,29.91,SSE,162,12.7,12.7,50,0.00,CLR,,0.00,WeatherDisplay:10.37,2013-01-10 17:47:00,
2013-01-10 11:48:00,38.9,21.8,29.91,SSE,156,12.7,12.7,50,0.00,CLR,,0.00,WeatherDisplay:10.37,2013-01-10 17:48:00,
2013-01-10 11:52:00,38.9,21.8,29.91,SSE,164,16.0,16.0,50,0.00,CLR,,0.00,WeatherDisplay:10.37,2013-01-10 17:52:00,
2013-01-10 11:53:00,38.9,21.8,29.91,SE,145,16.1,16.1,50,0.00,CLR,,0.00,WeatherDisplay:10.37,2013-01-10 17:53:00,
2013-01-10 11:58:00,39.1,22.0,29.91,SSE,164,15.0,15.0,50,0.00,CLR,,0.00,WeatherDisplay:10.37,2013-01-10 17:58:00,
2013-01-10 11:59:00,39.1,22.0,29.91,SSE,164,15.0,15.0,50,0.00,CLR,,0.00,WeatherDisplay:10.37,2013-01-10 17:59:00,
2013-01-10 12:03:00,39.1,22.0,29.91,SSE,168,11.5,11.5,50,0.00,CLR,,0.00,WeatherDisplay:10.37,2013-01-10 18:03:00,
2013-01-10 12:04:00,39.0,21.9,29.91,SSE,157,11.5,11.5,50,0.00,CLR,,0.00,WeatherDisplay:10.37,2013-01-10 18:04:00,
2013-01-10 12:05:00,39.0,21.9,29.91,SSE,167,12.7,12.7,50,0.00,CLR,,0.00,WeatherDisplay:10.37,2013-01-10 18:05:00,
2013-01-10 12:07:00,38.9,21.8,29.91,SSE,155,11.5,11.5,50,0.00,CLR,,0.00,WeatherDisplay:10.37,2013-01-10 18:07:00,
2013-01-10 12:11:00,38.9,21.8,29.91,South,172,14.0,14.0,50,0.00,CLR,,0.00,WeatherDisplay:10.37,2013-01-10 18:11:00,
2013-01-10 12:12:00,38.9,21.8,29.91,SSE,161,13.8,13.8,50,0.00,CLR,,0.00,WeatherDisplay:10.37,2013-01-10 18:12:00,
2013-01-10 12:17:00,38.9,21.8,29.91,South,169,19.6,19.6,50,0.00,CLR,,0.00,WeatherDisplay:10.37,2013-01-10 18:17:00,
2013-01-10 12:20:00,38.9,21.8,29.91,SSE,165,15.0,0.0,50,0.00,CLR,CLR,0.00,WeatherDisplay:10.37,2013-01-10 18:20:00,
2013-01-10 12:21:00,38.7,21.6,29.91,SSE,157,17.3,17.3,50,0.00,CLR,,0.00,WeatherDisplay:10.37,2013-01-10 18:21:00,
2013-01-10 12:22:00,38.7,21.6,29.91,SSE,154,15.0,15.0,50,0.00,CLR,,0.00,WeatherDisplay:10.37,2013-01-10 18:22:00,
2013-01-10 12:25:00,38.6,21.5,29.91,SSE,167,12.7,12.7,50,0.00,CLR,,0.00,WeatherDisplay:10.37,2013-01-10 18:25:00,
2013-01-10 12:29:00,38.8,21.7,29.91,SSE,160,11.5,11.5,50,0.00,CLR,,0.00,WeatherDisplay:10.37,2013-01-10 18:29:00,
2013-01-10 12:30:00,38.8,21.7,29.91,SSE,160,11.5,11.5,50,0.00,CLR,,0.00,WeatherDisplay:10.37,2013-01-10 18:30:00,
2013-01-10 12:32:00,38.9,21.8,29.91,SSE,160,8.0,8.0,50,0.00,CLR,,0.00,WeatherDisplay:10.37,2013-01-10 18:32:00,
2013-01-10 12:35:00,38.7,21.6,29.91,SSE,166,8.1,8.1,50,0.00,CLR,,0.00,WeatherDisplay:10.37,2013-01-10 18:35:00,
2013-01-10 12:37:00,38.6,21.5,29.91,SSE,160,8.1,8.1,50,0.00,CLR,,0.00,WeatherDisplay:10.37,2013-01-10 18:37:00,
2013-01-10 12:39:00,38.6,21.5,29.91,SSE,162,11.0,11.0,50,0.00,CLR,,0.00,WeatherDisplay:10.37,2013-01-10 18:39:00,
2013-01-10 12:40:00,38.5,21.5,29.91,SSE,150,11.5,11.5,50,0.00,CLR,,0.00,WeatherDisplay:10.37,2013-01-10 18:40:00,
2013-01-10 12:43:00,38.5,21.5,29.91,SSE,158,6.9,6.9,50,0.00,CLR,,0.00,WeatherDisplay:10.37,2013-01-10 18:43:00,
2013-01-10 12:45:00,38.6,21.5,29.91,SSE,158,5.0,5.0,50,0.00,CLR,,0.00,WeatherDisplay:10.37,2013-01-10 18:45:00,
2013-01-10 12:46:00,38.6,21.5,29.91,SSE,158,4.0,4.0,50,0.00,CLR,,0.00,WeatherDisplay:10.37,2013-01-10 18:46:00,
2013-01-10 12:47:00,38.7,21.6,29.91,SSE,158,4.6,4.6,50,0.00,CLR,,0.00,WeatherDisplay:10.37,2013-01-10 18:47:00,
2013-01-10 12:49:00,38.8,21.7,29.91,SSE,158,5.8,5.8,50,0.00,CLR,,0.00,WeatherDisplay:10.37,2013-01-10 18:49:00,
2013-01-10 12:51:00,38.8,21.7,29.91,SSE,158,5.0,5.0,50,0.00,CLR,,0.00,WeatherDisplay:10.37,2013-01-10 18:51:00,
2013-01-10 12:53:00,38.7,21.6,29.91,SSE,159,6.0,6.0,50,0.00,CLR,,0.00,WeatherDisplay:10.37,2013-01-10 18:53:00,
2013-01-10 12:54:00,38.7,21.6,29.91,SSE,163,7.0,7.0,50,0.00,CLR,,0.00,WeatherDisplay:10.37,2013-01-10 18:54:00,
2013-01-10 12:59:00,38.3,21.3,29.91,South,173,10.4,10.4,50,0.00,CLR,,0.00,WeatherDisplay:10.37,2013-01-10 18:59:00,
2013-01-10 13:00:00,38.3,21.3,29.91,SSE,161,10.4,10.4,50,0.00,CLR,,0.00,WeatherDisplay:10.37,2013-01-10 19:00:00,
2013-01-10 13:03:00,38.1,21.1,29.91,SSE,161,9.2,9.2,50,0.00,CLR,,0.00,WeatherDisplay:10.37,2013-01-10 19:03:00,
2013-01-10 13:05:00,38.0,21.0,29.91,SSE,161,6.9,6.9,50,0.00,CLR,,0.00,WeatherDisplay:10.37,2013-01-10 19:05:00,
2013-01-10 13:06:00,37.9,20.9,29.91,SSE,161,6.9,6.9,50,0.00,CLR,,0.00,WeatherDisplay:10.37,2013-01-10 19:06:00,
2013-01-10 13:09:00,37.8,20.8,29.91,SSE,158,8.1,8.1,50,0.00,CLR,,0.00,WeatherDisplay:10.37,2013-01-10 19:09:00,
2013-01-10 13:10:00,37.7,20.7,29.91,SSE,160,5.0,0.0,50,0.00,CLR,CLR,0.00,WeatherDisplay:10.37,2013-01-10 19:10:00,
2013-01-10 13:11:00,37.7,20.7,29.91,SSE,156,5.8,5.8,50,0.00,CLR,,0.00,WeatherDisplay:10.37,2013-01-10 19:11:00,
2013-01-10 13:12:00,37.7,20.7,29.91,SSE,156,4.6,4.6,50,0.00,CLR,,0.00,WeatherDisplay:10.37,2013-01-10 19:12:00,
2013-01-10 13:14:00,37.4,20.4,29.91,SE,146,6.9,6.9,50,0.00,CLR,,0.00,WeatherDisplay:10.37,2013-01-10 19:14:00,
2013-01-10 13:16:00,37.4,20.4,29.91,SE,146,8.1,8.1,50,0.00,CLR,,0.00,WeatherDisplay:10.37,2013-01-10 19:16:00,
2013-01-10 13:17:00,37.4,20.4,29.91,SE,144,6.9,6.9,50,0.00,CLR,,0.00,WeatherDisplay:10.37,2013-01-10 19:17:00,
2013-01-10 13:19:00,37.4,20.4,29.91,SE,140,8.1,8.1,50,0.00,CLR,,0.00,WeatherDisplay:10.37,2013-01-10 19:19:00,
2013-01-10 13:21:00,37.5,20.5,29.91,SE,135,8.1,8.1,50,0.00,CLR,,0.00,WeatherDisplay:10.37,2013-01-10 19:21:00,
2013-01-10 13:24:00,37.3,20.3,29.91,SE,136,5.8,5.8,50,0.00,CLR,,0.00,WeatherDisplay:10.37,2013-01-10 19:24:00,
2013-01-10 13:27:00,37.4,20.4,29.91,SE,135,6.0,6.0,50,0.00,CLR,,0.00,WeatherDisplay:10.37,2013-01-10 19:27:00,
2013-01-10 13:28:00,37.3,20.3,29.91,SE,135,5.8,5.8,50,0.00,CLR,,0.00,WeatherDisplay:10.37,2013-01-10 19:28:00,
2013-01-10 13:33:00,37.5,20.5,29.91,SE,128,3.5,3.5,50,0.00,CLR,,0.00,WeatherDisplay:10.37,2013-01-10 19:33:00,
2013-01-10 13:34:00,37.5,20.5,29.91,SE,125,4.0,4.0,50,0.00,CLR,,0.00,WeatherDisplay:10.37,2013-01-10 19:34:00,
2013-01-10 13:35:00,37.5,20.5,29.91,SE,125,5.0,5.0,50,0.00,CLR,,0.00,WeatherDisplay:10.37,2013-01-10 19:35:00,
2013-01-10 13:40:00,37.1,20.2,29.91,SE,125,4.0,4.0,50,0.00,CLR,,0.00,WeatherDisplay:10.37,2013-01-10 19:40:00,
2013-01-10 13:43:00,36.9,20.0,29.91,SE,125,3.5,3.5,50,0.00,CLR,,0.00,WeatherDisplay:10.37,2013-01-10 19:43:00,
2013-01-10 13:44:00,36.9,20.0,29.91,SE,125,4.6,4.6,50,0.00,CLR,,0.00,WeatherDisplay:10.37,2013-01-10 19:44:00,
2013-01-10 13:48:00,36.9,20.0,29.91,SE,125,5.8,5.8,50,0.00,CLR,,0.00,WeatherDisplay:10.37,2013-01-10 19:48:00,
2013-01-10 13:54:00,37.2,20.2,29.91,SE,125,3.5,3.5,50,0.00,CLR,,0.00,WeatherDisplay:10.37,2013-01-10 19:54:00,
2013-01-10 13:56:00,37.2,20.2,29.91,SE,125,3.5,3.5,50,0.00,CLR,,0.00,WeatherDisplay:10.37,2013-01-10 19:56:00,
2013-01-10 13:59:00,37.2,20.2,29.91,SE,125,2.3,2.3,50,0.00,CLR,,0.00,WeatherDisplay:10.37,2013-01-10 19:59:00,
2013-01-10 14:01:00,37.3,20.3,29.91,SE,125,2.3,2.3,50,0.00,CLR,,0.00,WeatherDisplay:10.37,2013-01-10 20:01:00,
2013-01-10 14:03:00,37.2,20.2,29.91,SE,125,2.3,2.3,50,0.00,CLR,,0.00,WeatherDisplay:10.37,2013-01-10 20:03:00,
2013-01-10 14:04:00,37.2,20.2,29.91,SE,125,2.3,2.3,50,0.00,CLR,,0.00,WeatherDisplay:10.37,2013-01-10 20:04:00,
2013-01-10 14:09:00,37.2,20.2,29.91,SE,125,2.3,2.3,50,0.00,CLR,,0.00,WeatherDisplay:10.37,2013-01-10 20:09:00,
2013-01-10 14:10:00,37.1,20.2,29.91,SE,125,3.5,3.5,50,0.00,CLR,,0.00,WeatherDisplay:10.37,2013-01-10 20:10:00,
2013-01-10 14:14:00,36.7,19.8,29.91,SE,125,4.0,4.0,50,0.01,RA,,0.01,WeatherDisplay:10.37,2013-01-10 20:14:00,
2013-01-10 14:15:00,36.6,19.7,29.91,SE,125,3.5,3.5,50,0.01,RA,,0.01,WeatherDisplay:10.37,2013-01-10 20:15:00,
2013-01-10 14:20:00,36.4,19.5,29.91,SE,125,2.0,0.0,50,0.01,RA,RA,0.01,WeatherDisplay:10.37,2013-01-10 20:20:00,
2013-01-10 14:21:00,36.4,19.5,29.91,SE,125,4.0,4.0,50,0.01,RA,,0.01,WeatherDisplay:10.37,2013-01-10 20:21:00,
2013-01-10 14:26:00,36.1,19.2,29.91,SE,125,5.0,5.0,50,0.01,CLR,,0.01,WeatherDisplay:10.37,2013-01-10 20:26:00,
2013-01-10 14:27:00,36.1,19.2,29.91,SE,125,5.0,5.0,50,0.01,CLR,,0.01,WeatherDisplay:10.37,2013-01-10 20:27:00,
2013-01-10 14:30:00,36.1,19.2,29.91,SE,125,4.6,4.6,50,0.01,CLR,,0.01,WeatherDisplay:10.37,2013-01-10 20:30:00,
2013-01-10 14:33:00,36.2,19.3,29.91,SE,125,5.8,5.8,50,0.01,CLR,,0.01,WeatherDisplay:10.37,2013-01-10 20:33:00,
2013-01-10 14:34:00,36.3,19.4,29.91,SE,125,6.0,6.0,50,0.01,CLR,,0.01,WeatherDisplay:10.37,2013-01-10 20:34:00,
2013-01-10 14:35:00,36.3,19.4,29.91,SE,124,6.0,6.0,50,0.01,CLR,,0.01,WeatherDisplay:10.37,2013-01-10 20:35:00,
2013-01-10 14:38:00,36.4,19.5,29.91,ESE,123,5.8,5.8,50,0.01,CLR,,0.01,WeatherDisplay:10.37,2013-01-10 20:38:00,
2013-01-10 14:39:00,36.4,19.5,29.91,ESE,123,6.0,6.0,50,0.01,CLR,,0.01,WeatherDisplay:10.37,2013-01-10 20:39:00,
2013-01-10 14:44:00,36.7,19.8,29.91,ESE,122,6.0,6.0,50,0.01,CLR,,0.01,WeatherDisplay:10.37,2013-01-10 20:44:00,
2013-01-10 14:45:00,36.7,19.8,29.91,ESE,119,6.0,6.0,50,0.01,CLR,,0.01,WeatherDisplay:10.37,2013-01-10 20:45:00,
2013-01-10 14:49:00,36.6,19.7,29.91,ESE,119,8.1,8.1,50,0.01,CLR,,0.01,WeatherDisplay:10.37,2013-01-10 20:49:00,
2013-01-10 14:50:00,36.6,19.7,29.91,ESE,119,8.1,8.1,50,0.01,CLR,,0.01,WeatherDisplay:10.37,2013-01-10 20:50:00,
2013-01-10 14:51:00,36.5,19.6,29.91,ESE,116,8.0,8.0,50,0.01,CLR,,0.01,WeatherDisplay:10.37,2013-01-10 20:51:00,
2013-01-10 14:54:00,36.4,19.5,29.91,ESE,117,5.8,5.8,50,0.01,CLR,,0.01,WeatherDisplay:10.37,2013-01-10 20:54:00,
2013-01-10 14:55:00,36.3,19.4,29.91,ESE,119,6.0,6.0,50,0.01,CLR,,0.01,WeatherDisplay:10.37,2013-01-10 20:55:00,
2013-01-10 14:59:00,36.2,19.3,29.91,ESE,117,5.8,5.8,50,0.01,CLR,,0.01,WeatherDisplay:10.37,2013-01-10 20:59:00,
2013-01-10 15:01:00,36.2,19.3,29.91,ESE,115,5.0,5.0,50,0.01,CLR,,0.01,WeatherDisplay:10.37,2013-01-10 21:01:00,
2013-01-10 15:06:00,35.8,19.0,29.91,ESE,116,6.9,6.9,50,0.01,CLR,,0.01,WeatherDisplay:10.37,2013-01-10 21:06:00,
2013-01-10 15:08:00,35.8,19.0,29.91,ESE,121,6.9,6.9,50,0.01,CLR,,0.01,WeatherDisplay:10.37,2013-01-10 21:08:00,
2013-01-10 15:10:00,35.8,19.0,29.91,ESE,122,8.0,8.0,50,0.01,CLR,,0.01,WeatherDisplay:10.37,2013-01-10 21:10:00,
2013-01-10 15:13:00,35.5,18.7,29.91,ESE,118,6.9,6.9,50,0.00,CLR,,0.01,WeatherDisplay:10.37,2013-01-10 21:13:00,
2013-01-10 15:15:00,35.2,18.4,29.91,SE,131,9.0,9.0,50,0.00,CLR,,0.01,WeatherDisplay:10.37,2013-01-10 21:15:00,
2013-01-10 15:18:00,35.2,18.4,29.91,ESE,120,9.2,9.2,50,0.00,CLR,,0.01,WeatherDisplay:10.37,2013-01-10 21:18:00,
2013-01-10 15:20:00,35.3,18.5,29.91,ESE,116,7.0,7.0,50,0.00,CLR,,0.01,WeatherDisplay:10.37,2013-01-10 21:20:00,
2013-01-10 15:23:00,35.4,18.6,29.91,ESE,114,6.9,6.9,50,0.00,CLR,,0.02,WeatherDisplay:10.37,2013-01-10 21:23:00,
2013-01-10 15:25:00,35.4,18.6,29.91,ESE,111,5.8,5.8,50,0.01,RA,,0.02,WeatherDisplay:10.37,2013-01-10 21:25:00,
2013-01-10 15:26:00,35.3,18.5,29.91,ESE,117,6.0,6.0,50,0.01,RA,,0.02,WeatherDisplay:10.37,2013-01-10 21:26:00,
2013-01-10 15:29:00,35.3,18.5,29.91,ESE,115,6.9,6.9,50,0.01,RA,,0.02,WeatherDisplay:10.37,2013-01-10 21:29:00,
2013-01-10 15:31:00,35.4,18.6,29.91,ESE,114,7.0,7.0,50,0.01,RA,,0.02,WeatherDisplay:10.37,2013-01-10 21:31:00,
2013-01-10 15:34:00,35.4,18.6,29.91,ESE,114,7.0,7.0,50,0.01,CLR,,0.02,WeatherDisplay:10.37,2013-01-10 21:34:00,
2013-01-10 15:35:00,35.4,18.6,29.91,ESE,115,8.1,8.1,50,0.01,CLR,,0.02,WeatherDisplay:10.37,2013-01-10 21:35:00,
2013-01-10 15:37:00,35.2,18.4,29.91,ESE,116,9.2,9.2,50,0.01,CLR,,0.02,WeatherDisplay:10.37,2013-01-10 21:37:00,
2013-01-10 15:40:00,35.4,18.6,29.91,ESE,119,6.9,6.9,50,0.01,CLR,,0.02,WeatherDisplay:10.37,2013-01-10 21:40:00,
2013-01-10 15:43:00,35.2,18.4,29.91,ESE,118,8.1,8.1,50,0.01,CLR,,0.02,WeatherDisplay:10.37,2013-01-10 21:43:00,
2013-01-10 15:46:00,35.4,18.6,29.91,ESE,116,8.1,8.1,50,0.01,CLR,,0.02,WeatherDisplay:10.37,2013-01-10 21:46:00,
2013-01-10 15:48:00,35.5,18.7,29.91,ESE,115,8.1,8.1,50,0.01,CLR,,0.02,WeatherDisplay:10.37,2013-01-10 21:48:00,
2013-01-10 15:51:00,35.5,18.7,29.91,ESE,121,8.1,8.1,50,0.01,CLR,,0.02,WeatherDisplay:10.37,2013-01-10 21:51:00,
2013-01-10 15:53:00,35.3,18.5,29.91,ESE,114,6.9,6.9,50,0.01,CLR,,0.02,WeatherDisplay:10.37,2013-01-10 21:53:00,
2013-01-10 15:54:00,35.3,18.5,29.91,ESE,119,7.0,7.0,50,0.01,CLR,,0.02,WeatherDisplay:10.37,2013-01-10 21:54:00,
2013-01-10 15:56:00,35.2,18.4,29.91,SE,127,7.0,7.0,50,0.01,CLR,,0.02,WeatherDisplay:10.37,2013-01-10 21:56:00,
2013-01-10 15:58:00,35.1,18.3,29.91,ESE,117,6.9,6.9,50,0.01,CLR,,0.02,WeatherDisplay:10.37,2013-01-10 21:58:00,
2013-01-10 16:01:00,35.1,18.3,29.91,ESE,117,8.1,8.1,50,0.01,CLR,,0.02,WeatherDisplay:10.37,2013-01-10 22:01:00,
2013-01-10 16:03:00,35.1,18.3,29.91,ESE,114,8.1,8.1,50,0.01,CLR,,0.02,WeatherDisplay:10.37,2013-01-10 22:03:00,
2013-01-10 16:07:00,34.7,17.9,29.91,ESE,121,10.4,10.4,50,0.01,CLR,,0.02,WeatherDisplay:10.37,2013-01-10 22:07:00,
2013-01-10 16:09:00,34.7,17.9,29.91,ESE,122,9.2,9.2,50,0.01,CLR,,0.02,WeatherDisplay:10.37,2013-01-10 22:09:00,
2013-01-10 16:13:00,34.6,17.8,29.91,ESE,117,10.4,10.4,50,0.01,CLR,,0.02,WeatherDisplay:10.37,2013-01-10 22:13:00,
2013-01-10 16:14:00,34.6,17.8,29.91,ESE,114,10.4,10.4,50,0.01,CLR,,0.02,WeatherDisplay:10.37,2013-01-10 22:14:00,
2013-01-10 16:15:00,34.7,17.9,29.91,ESE,118,8.1,8.1,50,0.01,CLR,,0.02,WeatherDisplay:10.37,2013-01-10 22:15:00,
2013-01-10 16:19:00,34.7,17.9,29.91,ESE,119,9.2,9.2,50,0.01,CLR,,0.02,WeatherDisplay:10.37,2013-01-10 22:19:00,
2013-01-10 16:21:00,34.5,17.8,29.91,ESE,118,9.0,9.0,50,0.01,CLR,,0.02,WeatherDisplay:10.37,2013-01-10 22:21:00,
2013-01-10 16:23:00,34.6,17.8,29.91,SE,125,9.2,9.2,50,0.01,CLR,,0.02,WeatherDisplay:10.37,2013-01-10 22:23:00,
2013-01-10 16:25:00,34.5,17.8,29.91,ESE,115,9.2,9.2,50,0.00,CLR,,0.02,WeatherDisplay:10.37,2013-01-10 22:25:00,
2013-01-10 16:27:00,34.4,17.7,29.91,ESE,115,9.2,9.2,50,0.00,CLR,,0.02,WeatherDisplay:10.37,2013-01-10 22:27:00,
2013-01-10 16:30:00,34.4,17.7,29.91,ESE,114,9.2,9.2,50,0.00,CLR,,0.02,WeatherDisplay:10.37,2013-01-10 22:30:00,
2013-01-10 16:32:00,34.4,17.7,29.91,ESE,116,11.5,11.5,50,0.00,CLR,,0.02,WeatherDisplay:10.37,2013-01-10 22:32:00,
2013-01-10 16:35:00,34.2,17.5,29.91,ESE,114,9.2,9.2,50,0.00,CLR,,0.02,WeatherDisplay:10.37,2013-01-10 22:35:00,
2013-01-10 16:36:00,34.2,17.5,29.91,ESE,111,9.2,9.2,50,0.00,CLR,,0.02,WeatherDisplay:10.37,2013-01-10 22:36:00,
2013-01-10 16:37:00,34.2,17.5,29.91,ESE,113,9.2,9.2,50,0.00,CLR,,0.02,WeatherDisplay:10.37,2013-01-10 22:37:00,
2013-01-10 16:41:00,34.3,17.6,29.91,ESE,117,11.5,11.5,50,0.00,CLR,,0.02,WeatherDisplay:10.37,2013-01-10 22:41:00,
2013-01-10 16:42:00,34.2,17.5,29.91,ESE,117,12.0,12.0,50,0.00,CLR,,0.02,WeatherDisplay:10.37,2013-01-10 22:42:00,
2013-01-10 16:47:00,34.1,17.4,29.91,ESE,118,11.5,11.5,50,0.00,CLR,,0.02,WeatherDisplay:10.37,2013-01-10 22:47:00,
2013-01-10 16:50:00,34.2,17.5,29.91,ESE,116,7.0,0.0,50,0.00,CLR,CLR,0.02,WeatherDisplay:10.37,2013-01-10 22:50:00,
2013-01-10 16:53:00,34.3,17.6,29.91,ESE,115,11.5,11.5,50,0.00,CLR,,0.02,WeatherDisplay:10.37,2013-01-10 22:53:00,
2013-01-10 16:56:00,34.2,17.5,29.91,ESE,117,9.2,9.2,50,0.00,CLR,,0.02,WeatherDisplay:10.37,2013-01-10 22:56:00,
2013-01-10 16:58:00,34.1,17.4,29.91,SE,137,9.0,9.0,50,0.00,CLR,,0.02,WeatherDisplay:10.37,2013-01-10 22:58:00,
2013-01-10 17:00:00,34.1,17.4,29.91,SE,133,11.5,11.5,50,0.00,CLR,,0.02,WeatherDisplay:10.37,2013-01-10 23:00:00,
2013-01-10 17:02:00,34.0,17.3,29.91,SE,136,9.2,9.2,50,0.00,CLR,,0.02,WeatherDisplay:10.37,2013-01-10 23:02:00,
2013-01-10 17:05:00,34.0,17.3,29.91,SE,145,10.0,10.0,50,0.00,CLR,,0.02,WeatherDisplay:10.37,2013-01-10 23:05:00,
2013-01-10 17:08:00,33.9,17.2,29.91,SE,141,10.4,10.4,50,0.00,CLR,,0.02,WeatherDisplay:10.37,2013-01-10 23:08:00,
2013-01-10 17:11:00,34.0,17.3,29.91,SE,143,10.4,10.4,50,0.00,CLR,,0.02,WeatherDisplay:10.37,2013-01-10 23:11:00,
2013-01-10 17:13:00,34.1,17.4,29.91,SE,146,11.5,11.5,50,0.00,CLR,,0.02,WeatherDisplay:10.37,2013-01-10 23:13:00,
2013-01-10 17:16:00,34.1,17.4,29.91,SSE,148,13.8,13.8,50,0.00,CLR,,0.02,WeatherDisplay:10.37,2013-01-10 23:16:00,
2013-01-10 17:19:00,34.1,17.4,29.91,SSE,162,15.0,15.0,50,0.00,CLR,,0.02,WeatherDisplay:10.37,2013-01-10 23:19:00,
2013-01-10 17:20:00,34.1,17.4,29.91,SSE,161,15.0,15.0,50,0.00,CLR,,0.02,WeatherDisplay:10.37,2013-01-10 23:20:00,
2013-01-10 17:24:00,34.2,17.5,29.91,South,178,12.7,12.7,50,0.00,CLR,,0.02,WeatherDisplay:10.37,2013-01-10 23:24:00,
2013-01-10 17:25:00,34.2,17.5,29.91,SSE,158,13.0,13.0,50,0.00,CLR,,0.02,WeatherDisplay:10.37,2013-01-10 23:25:00,
2013-01-10 17:29:00,34.2,17.5,29.91,SSE,156,11.5,11.5,50,0.00,CLR,,0.02,WeatherDisplay:10.37,2013-01-10 23:29:00,
2013-01-10 17:30:00,34.2,17.5,29.91,SSE,163,18.0,18.0,50,0.00,CLR,,0.02,WeatherDisplay:10.37,2013-01-10 23:30:00,
2013-01-10 17:31:00,34.3,17.6,29.91,SSE,162,18.4,18.4,50,0.00,CLR,,0.02,WeatherDisplay:10.37,2013-01-10 23:31:00,
2013-01-10 17:35:00,34.2,17.5,29.91,SE,140,16.1,16.1,50,0.00,CLR,,0.02,WeatherDisplay:10.37,2013-01-10 23:35:00,
2013-01-10 17:37:00,34.2,17.5,29.91,SE,143,13.8,13.8,50,0.00,CLR,,0.02,WeatherDisplay:10.37,2013-01-10 23:37:00,
2013-01-10 17:39:00,34.2,17.5,29.91,SSE,149,12.0,12.0,50,0.00,CLR,,0.02,WeatherDisplay:10.37,2013-01-10 23:39:00,
2013-01-10 17:43:00,34.1,17.4,29.91,SSE,153,11.5,11.5,50,0.00,CLR,,0.02,WeatherDisplay:10.37,2013-01-10 23:43:00,
2013-01-10 17:47:00,34.0,17.3,29.91,SSE,151,8.1,8.1,50,0.00,CLR,,0.02,WeatherDisplay:10.37,2013-01-10 23:47:00,
2013-01-10 17:49:00,34.0,17.3,29.91,SSE,153,9.2,9.2,50,0.00,CLR,,0.02,WeatherDisplay:10.37,2013-01-10 23:49:00,
2013-01-10 17:50:00,34.0,17.3,29.91,SSE,153,9.2,9.2,50,0.00,CLR,,0.02,WeatherDisplay:10.37,2013-01-10 23:50:00,
2013-01-10 17:54:00,34.1,17.4,29.91,SE,141,10.4,10.4,50,0.00,CLR,,0.02,WeatherDisplay:10.37,2013-01-10 23:54:00,
2013-01-10 17:55:00,34.1,17.4,29.91,SSE,149,10.4,10.4,50,0.00,CLR,,0.02,WeatherDisplay:10.37,2013-01-10 23:55:00,
2013-01-10 18:00:00,34.2,17.5,29.91,SE,141,9.2,9.2,50,0.00,CLR,,0.02,WeatherDisplay:10.37,2013-01-11 00:00:00,
2013-01-10 18:01:00,34.1,17.4,29.91,SSE,150,9.2,9.2,50,0.00,CLR,,0.02,WeatherDisplay:10.37,2013-01-11 00:01:00,
2013-01-10 18:06:00,34.1,17.4,29.91,SE,146,11.5,11.5,50,0.00,CLR,,0.02,WeatherDisplay:10.37,2013-01-11 00:06:00,
2013-01-10 18:07:00,34.1,17.4,29.91,SE,139,11.5,11.5,50,0.00,CLR,,0.02,WeatherDisplay:10.37,2013-01-11 00:07:00,
2013-01-10 18:08:00,34.1,17.4,29.91,SE,140,10.4,10.4,50,0.00,CLR,,0.02,WeatherDisplay:10.37,2013-01-11 00:08:00,
2013-01-10 18:11:00,34.1,17.4,29.91,SE,139,11.5,11.5,50,0.00,CLR,,0.02,WeatherDisplay:10.37,2013-01-11 00:11:00,
2013-01-10 18:13:00,34.1,17.4,29.91,ESE,122,10.4,10.4,50,0.00,CLR,,0.02,WeatherDisplay:10.37,2013-01-11 00:13:00,
2013-01-10 18:14:00,34.1,17.4,29.91,ESE,122,9.2,9.2,50,0.00,CLR,,0.02,WeatherDisplay:10.37,2013-01-11 00:14:00,
2013-01-10 18:16:00,34.1,17.4,29.91,ESE,121,8.1,8.1,50,0.00,CLR,,0.02,WeatherDisplay:10.37,2013-01-11 00:16:00,
2013-01-10 18:18:00,34.1,17.4,29.91,SE,135,10.0,10.0,50,0.00,CLR,,0.02,WeatherDisplay:10.37,2013-01-11 00:18:00,
2013-01-10 18:20:00,34.0,17.3,29.91,SE,145,9.2,9.2,50,0.00,CLR,,0.02,WeatherDisplay:10.37,2013-01-11 00:20:00,
2013-01-10 18:21:00,34.0,17.3,29.91,SE,146,9.0,9.0,50,0.00,CLR,,0.02,WeatherDisplay:10.37,2013-01-11 00:21:00,
2013-01-10 18:24:00,34.0,17.3,29.91,SSE,152,9.2,9.2,50,0.00,CLR,,0.02,WeatherDisplay:10.37,2013-01-11 00:24:00,
2013-01-10 18:26:00,34.0,17.3,29.91,SE,142,9.2,9.2,50,0.00,CLR,,0.02,WeatherDisplay:10.37,2013-01-11 00:26:00,
2013-01-10 18:29:00,34.0,17.3,29.91,SE,140,8.1,8.1,50,0.00,CLR,,0.02,WeatherDisplay:10.37,2013-01-11 00:29:00,
2013-01-10 18:31:00,34.0,17.3,29.91,SSE,161,10.4,10.4,50,0.00,CLR,,0.02,WeatherDisplay:10.37,2013-01-11 00:31:00,
2013-01-10 18:32:00,34.0,17.3,29.91,SSE,161,10.4,10.4,50,0.00,CLR,,0.02,WeatherDisplay:10.37,2013-01-11 00:32:00,
2013-01-10 18:36:00,34.2,17.5,29.91,SSE,166,10.4,10.4,50,0.00,CLR,,0.02,WeatherDisplay:10.37,2013-01-11 00:36:00,
2013-01-10 18:37:00,34.2,17.5,29.91,SSE,149,10.4,10.4,50,0.00,CLR,,0.02,WeatherDisplay:10.37,2013-01-11 00:37:00,
2013-01-10 18:40:00,34.2,17.5,29.91,SSE,156,6.0,0.0,50,0.00,CLR,CLR,0.02,WeatherDisplay:10.37,2013-01-11 00:40:00,
2013-01-10 18:42:00,34.2,17.5,29.91,SE,136,6.9,6.9,50,0.00,CLR,,0.02,WeatherDisplay:10.37,2013-01-11 00:42:00,
2013-01-10 18:43:00,34.2,17.5,29.91,SE,137,7.0,7.0,50,0.00,CLR,,0.02,WeatherDisplay:10.37,2013-01-11 00:43:00,
2013-01-10 18:45:00,34.2,17.5,29.91,ESE,123,6.9,6.9,50,0.00,CLR,,0.02,WeatherDisplay:10.37,2013-01-11 00:45:00,
2013-01-10 18:49:00,34.1,17.4,29.91,SE,127,6.9,6.9,50,0.00,CLR,,0.02,WeatherDisplay:10.37,2013-01-11 00:49:00,
2013-01-10 18:50:00,34.1,17.4,29.91,SE,131,8.0,8.0,50,0.00,CLR,,0.02,WeatherDisplay:10.37,2013-01-11 00:50:00,
2013-01-10 18:55:00,34.1,17.4,29.91,SSE,154,7.0,7.0,50,0.00,CLR,,0.02,WeatherDisplay:10.37,2013-01-11 00:55:00,
2013-01-10 18:58:00,34.1,17.4,29.91,SSE,154,6.9,6.9,50,0.00,CLR,,0.02,WeatherDisplay:10.37,2013-01-11 00:58:00,
2013-01-10 19:01:00,34.2,17.5,29.91,SSE,162,10.4,10.4,50,0.00,CLR,,0.02,WeatherDisplay:10.37,2013-01-11 01:01:00,
2013-01-10 19:03:00,34.3,17.6,29.91,South,173,11.0,11.0,50,0.00,CLR,,0.02,WeatherDisplay:10.37,2013-01-11 01:03:00,
2013-01-10 19:06:00,34.3,17.6,29.91,SSE,155,10.4,10.4,50,0.00,CLR,,0.02,WeatherDisplay:10.37,2013-01-11 01:06:00,
2013-01-10 19:08:00,34.3,17.6,29.91,SSE,159,11.5,11.5,50,0.00,CLR,,0.02,WeatherDisplay:10.37,2013-01-11 01:08:00,
2013-01-10 19:09:00,34.3,17.6,29.91,SSE,162,11.5,11.5,50,0.00,CLR,,0.02,WeatherDisplay:10.37,2013-01-11 01:09:00,
2013-01-10 19:11:00,34.3,17.6,29.91,SSE,158,10.4,10.4,50,0.00,CLR,,0.02,WeatherDisplay:10.37,2013-01-11 01:11:00,
2013-01-10 19:14:00,34.2,17.5,29.91,SSE,153,10.4,10.4,50,0.00,CLR,,0.02,WeatherDisplay:10.37,2013-01-11 01:14:00,
2013-01-10 19:15:00,34.2,17.5,29.91,SSE,157,10.4,10.4,50,0.00,CLR,,0.02,WeatherDisplay:10.37,2013-01-11 01:15:00,
2013-01-10 19:17:00,34.2,17.5,29.91,SSE,156,11.5,11.5,50,0.00,CLR,,0.02,WeatherDisplay:10.37,2013-01-11 01:17:00,
2013-01-10 19:19:00,34.1,17.4,29.91,SSE,157,10.4,10.4,50,0.00,CLR,,0.02,WeatherDisplay:10.37,2013-01-11 01:19:00,
2013-01-10 19:20:00,34.1,17.4,29.91,SSE,151,10.4,10.4,50,0.00,CLR,,0.02,WeatherDisplay:10.37,2013-01-11 01:20:00,
2013-01-10 19:25:00,34.0,17.3,29.91,SE,137,8.1,8.1,50,0.00,CLR,,0.02,WeatherDisplay:10.37,2013-01-11 01:25:00,
2013-01-10 19:26:00,34.0,17.3,29.91,SSE,159,9.0,9.0,50,0.00,CLR,,0.02,WeatherDisplay:10.37,2013-01-11 01:26:00,
2013-01-10 19:27:00,34.1,17.4,29.91,SSE,150,11.5,11.5,50,0.00,CLR,,0.02,WeatherDisplay:10.37,2013-01-11 01:27:00,
2013-01-10 19:31:00,34.1,17.4,29.91,South,173,12.7,12.7,50,0.00,CLR,,0.02,WeatherDisplay:10.37,2013-01-11 01:31:00,
2013-01-10 19:32:00,34.1,17.4,29.91,South,169,11.5,11.5,50,0.00,CLR,,0.02,WeatherDisplay:10.37,2013-01-11 01:32:00,
2013-01-10 19:34:00,34.1,17.4,29.91,SSE,166,10.4,10.4,50,0.00,CLR,,0.02,WeatherDisplay:10.37,2013-01-11 01:34:00,
2013-01-10 19:36:00,34.1,17.4,29.91,South,174,12.0,12.0,50,0.00,CLR,,0.02,WeatherDisplay:10.37,2013-01-11 01:36:00,
2013-01-10 19:37:00,34.0,17.3,29.91,South,169,11.5,11.5,50,0.00,CLR,,0.02,WeatherDisplay:10.37,2013-01-11 01:37:00,
2013-01-10 19:42:00,34.0,17.3,29.91,South,182,9.2,9.2,50,0.00,CLR,,0.02,WeatherDisplay:10.37,2013-01-11 01:42:00,
2013-01-10 19:44:00,34.0,17.3,29.91,South,176,8.1,8.1,50,0.00,CLR,,0.02,WeatherDisplay:10.37,2013-01-11 01:44:00,
2013-01-10 19:47:00,33.9,17.2,29.91,South,170,6.9,6.9,50,0.00,CLR,,0.02,WeatherDisplay:10.37,2013-01-11 01:47:00,
2013-01-10 19:49:00,33.9,17.2,29.91,South,171,7.0,7.0,50,0.00,CLR,,0.02,WeatherDisplay:10.37,2013-01-11 01:49:00,
2013-01-10 19:52:00,33.8,17.1,29.91,South,171,7.0,7.0,50,0.00,CLR,,0.02,WeatherDisplay:10.37,2013-01-11 01:52:00,
2013-01-10 19:54:00,33.8,17.1,29.91,South,169,8.1,8.1,50,0.00,CLR,,0.02,WeatherDisplay:10.37,2013-01-11 01:54:00,
2013-01-10 19:58:00,33.7,17.0,29.91,SSE,165,6.9,6.9,50,0.00,CLR,,0.02,WeatherDisplay:10.37,2013-01-11 01:58:00,
2013-01-10 19:59:00,33.7,17.0,29.91,SSE,165,6.9,6.9,50,0.00,CLR,,0.02,WeatherDisplay:10.37,2013-01-11 01:59:00,
2013-01-10 20:03:00,33.7,17.0,29.91,SSE,165,7.0,7.0,50,0.00,CLR,,0.02,WeatherDisplay:10.37,2013-01-11 02:03:00,
2013-01-10 20:06:00,33.7,17.0,29.91,SSE,165,6.9,6.9,50,0.00,CLR,,0.02,WeatherDisplay:10.37,2013-01-11 02:06:00,
2013-01-10 20:09:00,33.7,17.0,29.91,SSE,165,6.9,6.9,50,0.00,CLR,,0.02,WeatherDisplay:10.37,2013-01-11 02:09:00,
2013-01-10 20:10:00,33.7,17.0,29.91,SSE,164,6.9,6.9,50,0.00,CLR,,0.02,WeatherDisplay:10.37,2013-01-11 02:10:00,
2013-01-10 20:11:00,33.6,16.9,29.91,SSE,165,6.9,6.9,50,0.00,CLR,,0.02,WeatherDisplay:10.37,2013-01-11 02:11:00,
2013-01-10 20:14:00,33.6,16.9,29.91,SSE,165,5.0,5.0,50,0.00,CLR,,0.02,WeatherDisplay:10.37,2013-01-11 02:14:00,
2013-01-10 20:17:00,33.6,16.9,29.91,SSE,165,5.8,5.8,50,0.00,CLR,,0.02,WeatherDisplay:10.37,2013-01-11 02:17:00,
2013-01-10 20:19:00,33.6,16.9,29.91,SSE,165,6.0,6.0,50,0.00,CLR,,0.02,WeatherDisplay:10.37,2013-01-11 02:19:00,
2013-01-10 20:21:00,33.6,16.9,29.91,SSE,165,6.0,6.0,50,0.00,CLR,,0.02,WeatherDisplay:10.37,2013-01-11 02:21:00,
2013-01-10 20:22:00,33.6,16.9,29.91,SSE,165,6.0,6.0,50,0.00,CLR,,0.02,WeatherDisplay:10.37,2013-01-11 02:22:00,
2013-01-10 20:24:00,33.6,16.9,29.91,SSE,165,7.0,7.0,50,0.00,CLR,,0.02,WeatherDisplay:10.37,2013-01-11 02:24:00,
2013-01-10 20:26:00,33.6,16.9,29.91,SSE,165,6.9,6.9,50,0.00,CLR,,0.02,WeatherDisplay:10.37,2013-01-11 02:26:00,
2013-01-10 20:28:00,33.6,16.9,29.91,SSE,163,7.0,7.0,50,0.00,CLR,,0.02,WeatherDisplay:10.37,2013-01-11 02:28:00,
2013-01-10 20:30:00,33.6,16.9,29.91,SSE,162,6.9,6.9,50,0.00,CLR,,0.02,WeatherDisplay:10.37,2013-01-11 02:30:00,
2013-01-10 20:32:00,33.6,16.9,29.91,SSE,163,6.9,6.9,50,0.00,CLR,,0.02,WeatherDisplay:10.37,2013-01-11 02:32:00,
2013-01-10 20:34:00,33.6,16.9,29.91,SSE,163,6.9,6.9,50,0.00,CLR,,0.02,WeatherDisplay:10.37,2013-01-11 02:34:00,
2013-01-10 20:35:00,33.6,16.9,29.91,SSE,163,7.0,7.0,50,0.00,CLR,,0.02,WeatherDisplay:10.37,2013-01-11 02:35:00,
2013-01-10 20:39:00,33.5,16.8,29.91,SSE,162,7.0,7.0,50,0.00,CLR,,0.02,WeatherDisplay:10.37,2013-01-11 02:39:00,
2013-01-10 20:40:00,33.5,16.8,29.91,SSE,163,6.0,0.0,50,0.00,CLR,CLR,0.02,WeatherDisplay:10.37,2013-01-11 02:40:00,
2013-01-10 20:42:00,33.5,16.8,29.91,SSE,163,5.8,5.8,50,0.00,CLR,,0.02,WeatherDisplay:10.37,2013-01-11 02:42:00,
2013-01-10 20:44:00,33.5,16.8,29.91,SSE,163,6.9,6.9,50,0.00,CLR,,0.02,WeatherDisplay:10.37,2013-01-11 02:44:00,
2013-01-10 20:45:00,33.5,16.8,29.91,SSE,163,6.9,6.9,50,0.00,CLR,,0.02,WeatherDisplay:10.37,2013-01-11 02:45:00,
2013-01-10 20:47:00,33.5,16.8,29.91,SSE,162,7.0,7.0,50,0.00,CLR,,0.02,WeatherDisplay:10.37,2013-01-11 02:47:00,
2013-01-10 20:50:00,33.6,16.9,29.91,SSE,162,6.9,6.9,50,0.00,CLR,,0.02,WeatherDisplay:10.37,2013-01-11 02:50:00,
2013-01-10 20:53:00,33.6,16.9,29.91,SSE,162,7.0,7.0,50,0.00,CLR,,0.02,WeatherDisplay:10.37,2013-01-11 02:53:00,
2013-01-10 20:57:00,33.6,16.9,29.91,SSE,162,8.1,8.1,50,0.00,CLR,,0.02,WeatherDisplay:10.37,2013-01-11 02:57:00,
2013-01-10 20:58:00,33.5,16.8,29.91,SSE,162,7.0,7.0,50,0.00,CLR,,0.02,WeatherDisplay:10.37,2013-01-11 02:58:00,
2013-01-10 21:03:00,33.5,16.8,29.91,SSE,165,8.0,8.0,50,0.00,CLR,,0.02,WeatherDisplay:10.37,2013-01-11 03:03:00,
2013-01-10 21:04:00,33.5,16.8,29.91,SSE,165,8.1,8.1,50,0.00,CLR,,0.02,WeatherDisplay:10.37,2013-01-11 03:04:00,
2013-01-10 21:08:00,33.6,16.9,29.91,SSE,166,9.2,9.2,50,0.00,CLR,,0.02,WeatherDisplay:10.37,2013-01-11 03:08:00,
2013-01-10 21:09:00,33.7,17.0,29.91,SSE,166,9.2,9.2,50,0.00,CLR,,0.02,WeatherDisplay:10.37,2013-01-11 03:09:00,
2013-01-10 21:10:00,33.6,17.0,29.91,SSE,165,7.0,0.0,50,0.00,CLR,CLR,0.02,WeatherDisplay:10.37,2013-01-11 03:10:00,
2013-01-10 21:14:00,33.7,17.0,29.91,South,173,9.2,9.2,50,0.00,CLR,,0.02,WeatherDisplay:10.37,2013-01-11 03:14:00,
2013-01-10 21:15:00,33.7,17.0,29.91,South,173,8.1,8.1,50,0.00,CLR,,0.02,WeatherDisplay:10.37,2013-01-11 03:15:00,
2013-01-10 21:16:00,33.7,17.0,29.91,South,173,8.1,8.1,50,0.00,CLR,,0.02,WeatherDisplay:10.37,2013-01-11 03:16:00,
2013-01-10 21:20:00,33.7,17.0,29.91,SSE,168,8.1,8.1,50,0.00,CLR,,0.02,WeatherDisplay:10.37,2013-01-11 03:20:00,
2013-01-10 21:21:00,33.7,17.0,29.91,SSE,168,8.1,8.1,50,0.00,CLR,,0.02,WeatherDisplay:10.37,2013-01-11 03:21:00,
2013-01-10 21:22:00,33.7,17.0,29.91,South,170,9.0,9.0,50,0.00,CLR,,0.02,WeatherDisplay:10.37,2013-01-11 03:22:00,
2013-01-10 21:27:00,33.8,17.1,29.91,South,175,9.2,9.2,50,0.00,CLR,,0.02,WeatherDisplay:10.37,2013-01-11 03:27:00,
2013-01-10 21:32:00,33.8,17.1,29.91,South,169,10.4,10.4,50,0.00,CLR,,0.02,WeatherDisplay:10.37,2013-01-11 03:32:00,
2013-01-10 21:33:00,33.8,17.1,29.91,SSE,167,8.1,8.1,50,0.00,CLR,,0.02,WeatherDisplay:10.37,2013-01-11 03:33:00,
2013-01-10 21:36:00,33.8,17.1,29.91,SSE,167,8.1,8.1,50,0.00,CLR,,0.02,WeatherDisplay:10.37,2013-01-11 03:36:00,
2013-01-10 21:37:00,33.8,17.1,29.91,SSE,167,9.2,9.2,50,0.00,CLR,,0.02,WeatherDisplay:10.37,2013-01-11 03:37:00,
2013-01-10 21:39:00,33.8,17.1,29.91,SSE,167,9.2,9.2,50,0.00,CLR,,0.02,WeatherDisplay:10.37,2013-01-11 03:39:00,
2013-01-10 21:42:00,33.8,17.1,29.91,SSE,165,10.0,10.0,50,0.00,CLR,,0.02,WeatherDisplay:10.37,2013-01-11 03:42:00,
2013-01-10 21:43:00,33.8,17.1,29.91,SSE,164,10.4,10.4,50,0.00,CLR,,0.02,WeatherDisplay:10.37,2013-01-11 03:43:00,
2013-01-10 21:44:00,33.8,17.1,29.91,SSE,162,8.1,8.1,50,0.00,CLR,,0.02,WeatherDisplay:10.37,2013-01-11 03:44:00,
2013-01-10 21:48:00,33.8,17.1,29.91,SSE,162,9.2,9.2,50,0.00,CLR,,0.02,WeatherDisplay:10.37,2013-01-11 03:48:00,
2013-01-10 21:49:00,33.8,17.1,29.91,SSE,162,9.2,9.2,50,0.00,CLR,,0.02,WeatherDisplay:10.37,2013-01-11 03:49:00,
2013-01-10 21:50:00,33.9,17.2,29.91,SSE,164,9.2,9.2,50,0.00,CLR,,0.02,WeatherDisplay:10.37,2013-01-11 03:50:00,
2013-01-10 21:55:00,34.0,17.3,29.91,SSE,165,10.4,10.4,50,0.00,CLR,,0.02,WeatherDisplay:10.37,2013-01-11 03:55:00,
2013-01-10 21:58:00,33.9,17.2,29.91,SSE,166,8.1,8.1,50,0.00,CLR,,0.02,WeatherDisplay:10.37,2013-01-11 03:58:00,
2013-01-10 22:00:00,34.0,17.3,29.91,South,173,9.2,9.2,50,0.00,CLR,,0.02,WeatherDisplay:10.37,2013-01-11 04:00:00,
2013-01-10 22:04:00,34.0,17.3,29.91,South,173,8.1,8.1,50,0.00,CLR,,0.02,WeatherDisplay:10.37,2013-01-11 04:04:00,
2013-01-10 22:05:00,34.0,17.3,29.91,South,174,7.0,7.0,50,0.00,CLR,,0.02,WeatherDisplay:10.37,2013-01-11 04:05:00,
2013-01-10 22:06:00,34.0,17.3,29.91,South,174,6.9,6.9,50,0.00,CLR,,0.02,WeatherDisplay:10.37,2013-01-11 04:06:00,
2013-01-10 22:11:00,34.1,17.4,29.91,SSW,195,9.2,9.2,50,0.00,CLR,,0.02,WeatherDisplay:10.37,2013-01-11 04:11:00,
2013-01-10 22:12:00,34.1,17.4,29.91,SSW,195,9.2,9.2,50,0.00,CLR,,0.02,WeatherDisplay:10.37,2013-01-11 04:12:00,
2013-01-10 22:16:00,34.2,17.5,29.91,South,189,10.4,10.4,50,0.00,CLR,,0.02,WeatherDisplay:10.37,2013-01-11 04:16:00,
2013-01-10 22:17:00,34.3,17.6,29.91,SSW,193,11.0,11.0,50,0.00,CLR,,0.02,WeatherDisplay:10.37,2013-01-11 04:17:00,
2013-01-10 22:19:00,34.3,17.6,29.91,South,190,11.5,11.5,50,0.00,CLR,,0.02,WeatherDisplay:10.37,2013-01-11 04:19:00,
2013-01-10 22:22:00,34.4,17.7,29.91,South,189,11.5,11.5,50,0.00,CLR,,0.02,WeatherDisplay:10.37,2013-01-11 04:22:00,
2013-01-10 22:25:00,34.5,17.8,29.91,South,181,10.4,10.4,50,0.00,CLR,,0.02,WeatherDisplay:10.37,2013-01-11 04:25:00,
2013-01-10 22:28:00,34.5,17.8,29.91,South,187,11.5,11.5,50,0.00,CLR,,0.02,WeatherDisplay:10.37,2013-01-11 04:28:00,
2013-01-10 22:29:00,34.5,17.8,29.91,South,186,9.2,9.2,50,0.00,CLR,,0.02,WeatherDisplay:10.37,2013-01-11 04:29:00,
2013-01-10 22:31:00,34.6,17.8,29.91,South,183,11.5,11.5,50,0.00,CLR,,0.02,WeatherDisplay:10.37,2013-01-11 04:31:00,
2013-01-10 22:33:00,34.7,17.9,29.91,South,183,11.5,11.5,50,0.00,CLR,,0.02,WeatherDisplay:10.37,2013-01-11 04:33:00,
2013-01-10 22:37:00,34.7,17.9,29.91,South,184,12.0,12.0,50,0.00,CLR,,0.02,WeatherDisplay:10.37,2013-01-11 04:37:00,
2013-01-10 22:39:00,34.7,17.9,29.91,South,178,11.5,11.5,50,0.00,CLR,,0.02,WeatherDisplay:10.37,2013-01-11 04:39:00,
2013-01-10 22:42:00,34.7,17.9,29.91,SSW,193,11.5,11.5,50,0.00,CLR,,0.02,WeatherDisplay:10.37,2013-01-11 04:42:00,
2013-01-10 22:44:00,34.8,18.0,29.91,SSW,195,9.2,9.2,50,0.00,CLR,,0.02,WeatherDisplay:10.37,2013-01-11 04:44:00,
2013-01-10 22:47:00,34.8,18.0,29.91,SSW,196,11.5,11.5,50,0.00,CLR,,0.02,WeatherDisplay:10.37,2013-01-11 04:47:00,
2013-01-10 22:49:00,34.8,18.0,29.91,SSW,199,11.5,11.5,50,0.00,CLR,,0.02,WeatherDisplay:10.37,2013-01-11 04:49:00,
2013-01-10 22:52:00,34.8,18.0,29.91,South,190,10.4,10.4,50,0.00,CLR,,0.02,WeatherDisplay:10.37,2013-01-11 04:52:00,
2013-01-10 22:53:00,34.7,17.9,29.91,SSW,196,10.4,10.4,50,0.00,CLR,,0.02,WeatherDisplay:10.37,2013-01-11 04:53:00,
2013-01-10 22:55:00,34.7,17.9,29.91,South,190,11.0,11.0,50,0.00,CLR,,0.02,WeatherDisplay:10.37,2013-01-11 04:55:00,
2013-01-10 22:58:00,34.8,18.0,29.91,South,186,9.2,9.2,50,0.00,CLR,,0.02,WeatherDisplay:10.37,2013-01-11 04:58:00,
2013-01-10 23:00:00,34.8,18.0,29.91,South,187,10.4,10.4,50,0.00,CLR,,0.02,WeatherDisplay:10.37,2013-01-11 05:00:00,
2013-01-10 23:03:00,34.7,17.9,29.91,South,186,10.0,10.0,50,0.00,CLR,,0.02,WeatherDisplay:10.37,2013-01-11 05:03:00,
2013-01-10 23:04:00,34.7,17.9,29.91,South,191,10.4,10.4,50,0.00,CLR,,0.02,WeatherDisplay:10.37,2013-01-11 05:04:00,
2013-01-10 23:06:00,34.7,17.9,29.91,South,190,11.5,11.5,50,0.00,CLR,,0.02,WeatherDisplay:10.37,2013-01-11 05:06:00,
2013-01-10 23:08:00,34.7,17.9,29.91,South,189,10.0,10.0,50,0.00,CLR,,0.02,WeatherDisplay:10.37,2013-01-11 05:08:00,
2013-01-10 23:09:00,34.7,17.9,29.91,South,191,10.4,10.4,50,0.00,CLR,,0.02,WeatherDisplay:10.37,2013-01-11 05:09:00,
2013-01-10 23:12:00,34.7,17.9,29.91,SSW,199,9.2,9.2,50,0.00,CLR,,0.02,WeatherDisplay:10.37,2013-01-11 05:12:00,
2013-01-10 23:13:00,34.8,18.0,29.91,SSW,200,9.0,9.0,50,0.00,CLR,,0.02,WeatherDisplay:10.37,2013-01-11 05:13:00,
2013-01-10 23:14:00,34.7,17.9,29.91,SSW,195,12.0,12.0,50,0.00,CLR,,0.02,WeatherDisplay:10.37,2013-01-11 05:14:00,
2013-01-10 23:18:00,34.7,17.9,29.91,SSW,194,11.5,11.5,50,0.00,CLR,,0.02,WeatherDisplay:10.37,2013-01-11 05:18:00,
2013-01-10 23:20:00,34.8,18.0,29.91,SSW,195,8.0,0.0,50,0.00,CLR,CLR,0.02,WeatherDisplay:10.37,2013-01-11 05:20:00,
2013-01-10 23:24:00,34.7,17.9,29.91,South,180,9.2,9.2,50,0.00,CLR,,0.02,WeatherDisplay:10.37,2013-01-11 05:24:00,
2013-01-10 23:26:00,34.7,17.9,29.91,South,185,10.4,10.4,50,0.00,CLR,,0.02,WeatherDisplay:10.37,2013-01-11 05:26:00,
2013-01-10 23:27:00,34.7,17.9,29.91,SSW,201,10.4,10.4,50,0.00,CLR,,0.02,WeatherDisplay:10.37,2013-01-11 05:27:00,
2013-01-10 23:31:00,34.7,17.9,29.91,SSW,193,9.2,9.2,50,0.00,CLR,,0.02,WeatherDisplay:10.37,2013-01-11 05:31:00,
2013-01-10 23:32:00,34.6,17.8,29.91,South,190,10.0,10.0,50,0.00,CLR,,0.02,WeatherDisplay:10.37,2013-01-11 05:32:00,
2013-01-10 23:33:00,34.6,17.8,29.91,SSW,192,10.4,10.4,50,0.00,CLR,,0.02,WeatherDisplay:10.37,2013-01-11 05:33:00,
2013-01-10 23:38:00,34.6,17.8,29.91,South,184,11.5,11.5,50,0.00,CLR,,0.02,WeatherDisplay:10.37,2013-01-11 05:38:00,
2013-01-10 23:39:00,34.6,17.8,29.91,South,178,11.5,11.5,50,0.00,CLR,,0.02,WeatherDisplay:10.37,2013-01-11 05:39:00,
2013-01-10 23:40:00,34.6,17.8,29.91,South,186,9.0,0.0,50,0.00,CLR,CLR,0.02,WeatherDisplay:10.37,2013-01-11 05:40:00,
2013-01-10 23:43:00,34.7,17.9,29.91,South,179,12.0,12.0,50,0.00,CLR,,0.02,WeatherDisplay:10.37,2013-01-11 05:43:00,
2013-01-10 23:44:00,34.7,17.9,29.91,South,177,11.5,11.5,50,0.00,CLR,,0.02,WeatherDisplay:10.37,2013-01-11 05:44:00,
2013-01-10 23:45:00,34.7,17.9,29.91,South,178,10.4,10.4,50,0.00,CLR,,0.02,WeatherDisplay:10.37,2013-01-11 05:45:00,
2013-01-10 23:48:00,34.7,17.9,29.91,South,178,12.7,12.7,50,0.00,CLR,,0.02,WeatherDisplay:10.37,2013-01-11 05:48:00,
2013-01-10 23:50:00,34.7,17.9,29.91,South,177,10.0,0.0,50,0.00,CLR,CLR,0.02,WeatherDisplay:10.37,2013-01-11 05:50:00,
2013-01-10 23:55:00,34.6,17.8,29.91,South,176,11.5,11.5,50,0.00,CLR,,0.02,WeatherDisplay:10.37,2013-01-11 05:55:00,
2013-01-10 23:56:00,34.6,17.8,29.91,South,175,12.0,12.0,50,0.00,CLR,,0.02,WeatherDisplay:10.37,2013-01-11 05:56:00,
2013-01-10 23:57:00,34.7,17.9,29.91,South,173,11.5,11.5,50,0.00,CLR,,0.02,WeatherDisplay:10.37,2013-01-11 05:57:00,